| time (UTC) | temp F | wind direction | speed MPH | gust MPH | rain 1hr in | rain 24hr in | rain mn in | humidity % | barometer mb |
| 20260901162757 | 88 | 23 | 1.0 | 5.0 | 0.00 | 0.00 | 0.00 | 57 | 1015.5 |
| 20260901162655 | 88 | 23 | 2.0 | 5.0 | 0.00 | 0.00 | 0.00 | 56 | 1015.5 |
| 20260901162556 | 88 | 23 | 1.0 | 5.0 | 0.00 | 0.00 | 0.00 | 56 | 1015.5 |
| 20260901162357 | 88 | 23 | 0.0 | 5.0 | 0.00 | 0.00 | 0.00 | 57 | 1015.6 |
| 20260901162057 | 88 | 23 | 0.0 | 5.0 | 0.00 | 0.00 | 0.00 | 56 | 1015.6 |
| 20260901161756 | 87 | 351 | 3.0 | 5.0 | 0.00 | 0.00 | 0.00 | 55 | 1015.5 |
| 20260901161657 | 87 | 346 | 0.0 | 5.0 | 0.00 | 0.00 | 0.00 | 55 | 1015.5 |
| 20260901161557 | 87 | 346 | 0.0 | 5.0 | 0.00 | 0.00 | 0.00 | 55 | 1015.5 |
| 20260901161455 | 87 | 346 | 1.0 | 5.0 | 0.00 | 0.00 | 0.00 | 55 | 1015.5 |
| 20260901161356 | 87 | 310 | 2.0 | 2.0 | 0.00 | 0.00 | 0.00 | 54 | 1015.5 |
| 20260901161257 | 87 | 309 | 1.0 | 3.0 | 0.00 | 0.00 | 0.00 | 54 | 1015.5 |
| 20260901161158 | 87 | 308 | 0.0 | 3.0 | 0.00 | 0.00 | 0.00 | 53 | 1015.5 |
| 20260901161055 | 87 | 308 | 0.0 | 3.0 | 0.00 | 0.00 | 0.00 | 53 | 1015.5 |
| 20260901160959 | 87 | 308 | 0.0 | 3.0 | 0.00 | 0.00 | 0.00 | 53 | 1015.5 |
| 20260901160856 | 87 | 308 | 0.0 | 3.0 | 0.00 | 0.00 | 0.00 | 53 | 1015.5 |
| 20260901160757 | 87 | 308 | 0.0 | 5.0 | 0.00 | 0.00 | 0.00 | 54 | 1015.4 |
| 20260901160556 | 87 | 308 | 0.0 | 5.0 | 0.00 | 0.00 | 0.00 | 55 | 1015.4 |
| 20260901160457 | 87 | 308 | 3.0 | 5.0 | 0.00 | 0.00 | 0.00 | 54 | 1015.4 |
| 20260901160156 | 87 | 274 | 0.0 | 5.0 | 0.00 | 0.00 | 0.00 | 53 | 1015.4 |
| 20260901160057 | 87 | 275 | 0.0 | 8.0 | 0.00 | 0.00 | 0.00 | 53 | 1015.4 |
| 20260901160001 | 86 | 11 | 2.0 | 8.0 | 0.00 | 0.00 | 0.00 | 53 | 1015.4 |
| 20260901155857 | 86 | 14 | 0.0 | 8.0 | 0.00 | 0.00 | 0.00 | 52 | 1015.4 |
| 20260901155755 | 86 | 27 | 0.0 | 8.0 | 0.00 | 0.00 | 0.00 | 52 | 1015.4 |
| 20260901155657 | 86 | 27 | 0.0 | 8.0 | 0.00 | 0.00 | 0.00 | 52 | 1015.4 |
| 20260901155558 | 86 | 27 | 1.0 | 8.0 | 0.00 | 0.00 | 0.00 | 52 | 1015.4 |
| 20260901155457 | 86 | 27 | 0.0 | 8.0 | 0.00 | 0.00 | 0.00 | 52 | 1015.4 |
| 20260901155257 | 86 | 17 | 1.0 | 8.0 | 0.00 | 0.00 | 0.00 | 53 | 1015.3 |
| 20260901155158 | 86 | 17 | 5.0 | 8.0 | 0.00 | 0.00 | 0.00 | 53 | 1015.3 |
| 20260901154957 | 86 | 245 | 0.0 | 6.0 | 0.00 | 0.00 | 0.00 | 52 | 1015.2 |
| 20260901154855 | 86 | 245 | 1.0 | 6.0 | 0.00 | 0.00 | 0.00 | 52 | 1015.2 |
| 20260901154757 | 86 | 245 | 2.0 | 6.0 | 0.00 | 0.00 | 0.00 | 52 | 1015.2 |
| 20260901154657 | 86 | 245 | 0.0 | 6.0 | 0.00 | 0.00 | 0.00 | 52 | 1015.2 |
| 20260901154555 | 86 | 13 | 1.0 | 6.0 | 0.00 | 0.00 | 0.00 | 51 | 1015.2 |
| 20260901154458 | 86 | 15 | 0.0 | 6.0 | 0.00 | 0.00 | 0.00 | 51 | 1015.3 |
| 20260901154358 | 86 | 15 | 0.0 | 6.0 | 0.00 | 0.00 | 0.00 | 51 | 1015.2 |
| 20260901154257 | 86 | 13 | 1.0 | 5.0 | 0.00 | 0.00 | 0.00 | 50 | 1015.2 |
| 20260901154156 | 86 | 13 | 0.0 | 5.0 | 0.00 | 0.00 | 0.00 | 50 | 1015.2 |
| 20260901153958 | 86 | 22 | 0.0 | 5.0 | 0.00 | 0.00 | 0.00 | 50 | 1015.2 |
| 20260901153857 | 86 | 21 | 1.0 | 5.0 | 0.00 | 0.00 | 0.00 | 48 | 1015.2 |
| 20260901153755 | 86 | 21 | 0.0 | 5.0 | 0.00 | 0.00 | 0.00 | 47 | 1015.3 |
| 20260901153600 | 86 | 21 | 0.0 | 5.0 | 0.00 | 0.00 | 0.00 | 47 | 1015.3 |
| 20260901153457 | 86 | 21 | 3.0 | 6.0 | 0.00 | 0.00 | 0.00 | 46 | 1015.3 |
| 20260901153355 | 86 | 329 | 0.0 | 6.0 | 0.00 | 0.00 | 0.00 | 46 | 1015.4 |
| 20260901153157 | 86 | 329 | 0.0 | 6.0 | 0.00 | 0.00 | 0.00 | 47 | 1015.4 |
| 20260901152959 | 86 | 329 | 2.0 | 6.0 | 0.00 | 0.00 | 0.00 | 46 | 1015.3 |
| 20260901152855 | 86 | 318 | 0.0 | 4.0 | 0.00 | 0.00 | 0.00 | 46 | 1015.3 |
| 20260901152758 | 86 | 317 | 1.0 | 4.0 | 0.00 | 0.00 | 0.00 | 46 | 1015.3 |
| 20260901152657 | 86 | 317 | 0.0 | 4.0 | 0.00 | 0.00 | 0.00 | 46 | 1015.3 |
| 20260901152555 | 86 | 317 | 1.0 | 4.0 | 0.00 | 0.00 | 0.00 | 45 | 1015.2 |
| 20260901152455 | 86 | 318 | 1.0 | 4.0 | 0.00 | 0.00 | 0.00 | 45 | 1015.2 |
| 20260901152401 | 86 | 317 | 1.0 | 4.0 | 0.00 | 0.00 | 0.00 | 45 | 1015.2 |
| 20260901152257 | 86 | 318 | 1.0 | 4.0 | 0.00 | 0.00 | 0.00 | 44 | 1015.2 |
| 20260901152156 | 86 | 311 | 0.0 | 4.0 | 0.00 | 0.00 | 0.00 | 44 | 1015.3 |
| 20260901152055 | 86 | 311 | 1.0 | 4.0 | 0.00 | 0.00 | 0.00 | 44 | 1015.3 |
| 20260901151857 | 85 | 310 | 0.0 | 4.0 | 0.00 | 0.00 | 0.00 | 44 | 1015.3 |
| 20260901151757 | 85 | 310 | 1.0 | 4.0 | 0.00 | 0.00 | 0.00 | 44 | 1015.2 |
| 20260901151655 | 85 | 311 | 2.0 | 4.0 | 0.00 | 0.00 | 0.00 | 44 | 1015.3 |
| 20260901151555 | 85 | 4 | 1.0 | 4.0 | 0.00 | 0.00 | 0.00 | 43 | 1015.2 |
| 20260901151457 | 85 | 4 | 0.0 | 4.0 | 0.00 | 0.00 | 0.00 | 43 | 1015.2 |
| 20260901151255 | 85 | 5 | 0.0 | 4.0 | 0.00 | 0.00 | 0.00 | 42 | 1015.2 |
| 20260901151157 | 85 | 5 | 0.0 | 4.0 | 0.00 | 0.00 | 0.00 | 41 | 1015.2 |
| 20260901151057 | 85 | 5 | 0.0 | 7.0 | 0.00 | 0.00 | 0.00 | 41 | 1015.2 |
| 20260901150957 | 85 | 5 | 0.0 | 7.0 | 0.00 | 0.00 | 0.00 | 42 | 1015.3 |
| 20260901150657 | 85 | 5 | 0.0 | 7.0 | 0.00 | 0.00 | 0.00 | 41 | 1015.2 |
| 20260901150558 | 85 | 5 | 0.0 | 7.0 | 0.00 | 0.00 | 0.00 | 42 | 1015.2 |
| 20260901150455 | 85 | 5 | 0.0 | 7.0 | 0.00 | 0.00 | 0.00 | 42 | 1015.2 |
| 20260901150356 | 85 | 5 | 0.0 | 7.0 | 0.00 | 0.00 | 0.00 | 42 | 1015.3 |
| 20260901150257 | 85 | 5 | 2.0 | 7.0 | 0.00 | 0.00 | 0.00 | 41 | 1015.3 |
| 20260901150157 | 85 | 3 | 0.0 | 4.0 | 0.00 | 0.00 | 0.00 | 41 | 1015.3 |
| 20260901150057 | 85 | 3 | 1.0 | 4.0 | 0.00 | 0.00 | 0.00 | 41 | 1015.3 |
| 20260901145856 | 85 | 3 | 0.0 | 4.0 | 0.00 | 0.00 | 0.00 | 42 | 1015.3 |
| 20260901145758 | 85 | 4 | 1.0 | 4.0 | 0.00 | 0.00 | 0.00 | 41 | 1015.3 |
| 20260901145657 | 85 | 4 | 3.0 | 4.0 | 0.00 | 0.00 | 0.00 | 40 | 1015.3 |
| 20260901145558 | 85 | 12 | 0.0 | 3.0 | 0.00 | 0.00 | 0.00 | 41 | 1015.3 |
| 20260901145455 | 85 | 12 | 0.0 | 3.0 | 0.00 | 0.00 | 0.00 | 40 | 1015.3 |
| 20260901145357 | 85 | 15 | 3.0 | 3.0 | 0.00 | 0.00 | 0.00 | 38 | 1015.2 |
| 20260901145255 | 85 | 33 | 0.0 | 2.0 | 0.00 | 0.00 | 0.00 | 38 | 1015.2 |
| 20260901145156 | 85 | 33 | 2.0 | 2.0 | 0.00 | 0.00 | 0.00 | 38 | 1015.2 |
| 20260901145056 | 85 | 33 | 0.0 | 2.0 | 0.00 | 0.00 | 0.00 | 37 | 1015.2 |
| 20260901144959 | 85 | 33 | 0.0 | 2.0 | 0.00 | 0.00 | 0.00 | 36 | 1015.2 |
| 20260901144857 | 85 | 33 | 0.0 | 2.0 | 0.00 | 0.00 | 0.00 | 37 | 1015.2 |
| 20260901144758 | 84 | 33 | 1.0 | 2.0 | 0.00 | 0.00 | 0.00 | 37 | 1015.2 |
| 20260901144654 | 84 | 33 | 0.0 | 2.0 | 0.00 | 0.00 | 0.00 | 37 | 1015.2 |
| 20260901144455 | 84 | 33 | 0.0 | 2.0 | 0.00 | 0.00 | 0.00 | 35 | 1015.2 |
| 20260901144357 | 84 | 33 | 0.0 | 2.0 | 0.00 | 0.00 | 0.00 | 37 | 1015.2 |
| 20260901144255 | 84 | 33 | 0.0 | 2.0 | 0.00 | 0.00 | 0.00 | 35 | 1015.2 |
| 20260901144056 | 84 | 33 | 0.0 | 2.0 | 0.00 | 0.00 | 0.00 | 35 | 1015.2 |
| 20260901143957 | 84 | 33 | 1.0 | 3.0 | 0.00 | 0.00 | 0.00 | 34 | 1015.3 |
| 20260901143657 | 84 | 33 | 0.0 | 3.0 | 0.00 | 0.00 | 0.00 | 34 | 1015.3 |
| 20260901143556 | 84 | 33 | 1.0 | 3.0 | 0.00 | 0.00 | 0.00 | 34 | 1015.3 |
| 20260901143457 | 84 | 33 | 0.0 | 3.0 | 0.00 | 0.00 | 0.00 | 33 | 1015.3 |
| 20260901143157 | 84 | 38 | 1.0 | 4.0 | 0.00 | 0.00 | 0.00 | 31 | 1015.3 |
| 20260901143055 | 84 | 38 | 3.0 | 4.0 | 0.00 | 0.00 | 0.00 | 31 | 1015.3 |
| 20260901142958 | 84 | 38 | 1.0 | 4.0 | 0.00 | 0.00 | 0.00 | 30 | 1015.3 |
| 20260901142856 | 83 | 38 | 0.0 | 4.0 | 0.00 | 0.00 | 0.00 | 29 | 1015.3 |
| 20260901142758 | 83 | 38 | 0.0 | 4.0 | 0.00 | 0.00 | 0.00 | 28 | 1015.3 |
| 20260901142655 | 83 | 38 | 3.0 | 4.0 | 0.00 | 0.00 | 0.00 | 28 | 1015.4 |
| 20260901142556 | 83 | 38 | 0.0 | 4.0 | 0.00 | 0.00 | 0.00 | 28 | 1015.4 |
| 20260901142457 | 83 | 38 | 1.0 | 4.0 | 0.00 | 0.00 | 0.00 | 27 | 1015.4 |
| 20260901142357 | 83 | 38 | 1.0 | 4.0 | 0.00 | 0.00 | 0.00 | 26 | 1015.4 |
| 20260901142155 | 83 | 41 | 0.0 | 4.0 | 0.00 | 0.00 | 0.00 | 27 | 1015.4 |
| 20260901142055 | 83 | 41 | 0.0 | 4.0 | 0.00 | 0.00 | 0.00 | 26 | 1015.4 |
| 20260901141958 | 83 | 41 | 0.0 | 4.0 | 0.00 | 0.00 | 0.00 | 26 | 1015.4 |
| 20260901141757 | 83 | 41 | 0.0 | 4.0 | 0.00 | 0.00 | 0.00 | 25 | 1015.5 |
| 20260901141655 | 83 | 41 | 2.0 | 4.0 | 0.00 | 0.00 | 0.00 | 24 | 1015.5 |
| 20260901141558 | 83 | 41 | 3.0 | 4.0 | 0.00 | 0.00 | 0.00 | 23 | 1015.5 |
| 20260901141457 | 83 | 46 | 0.0 | 2.0 | 0.00 | 0.00 | 0.00 | 21 | 1015.5 |
| 20260901141357 | 83 | 46 | 0.0 | 2.0 | 0.00 | 0.00 | 0.00 | 21 | 1015.6 |
| 20260901141256 | 83 | 46 | 0.0 | 2.0 | 0.00 | 0.00 | 0.00 | 21 | 1015.5 |
| 20260901141158 | 83 | 46 | 0.0 | 2.0 | 0.00 | 0.00 | 0.00 | 21 | 1015.6 |
| 20260901141056 | 82 | 46 | 0.0 | 2.0 | 0.00 | 0.00 | 0.00 | 20 | 1015.6 |
| 20260901140957 | 82 | 46 | 1.0 | 2.0 | 0.00 | 0.00 | 0.00 | 20 | 1015.6 |
| 20260901140857 | 82 | 46 | 0.0 | 2.0 | 0.00 | 0.00 | 0.00 | 18 | 1015.6 |
| 20260901140758 | 82 | 46 | 0.0 | 2.0 | 0.00 | 0.00 | 0.00 | 19 | 1015.5 |
| 20260901140558 | 82 | 46 | 0.0 | 1.0 | 0.00 | 0.00 | 0.00 | 17 | 1015.5 |
| 20260901140456 | 82 | 46 | 0.0 | 1.0 | 0.00 | 0.00 | 0.00 | 16 | 1015.5 |
| 20260901140357 | 82 | 46 | 0.0 | 2.0 | 0.00 | 0.00 | 0.00 | 15 | 1015.4 |
| 20260901140257 | 82 | 46 | 0.0 | 2.0 | 0.00 | 0.00 | 0.00 | 15 | 1015.5 |
| 20260901140156 | 82 | 46 | 0.0 | 2.0 | 0.00 | 0.00 | 0.00 | 14 | 1015.5 |
| 20260901140056 | 82 | 46 | 0.0 | 2.0 | 0.00 | 0.00 | 0.00 | 14 | 1015.4 |
| 20260901135959 | 82 | 46 | 1.0 | 2.0 | 0.00 | 0.00 | 0.00 | 13 | 1015.4 |
| 20260901135756 | 81 | 46 | 0.0 | 2.0 | 0.00 | 0.00 | 0.00 | 11 | 1015.5 |
| 20260901135656 | 81 | 46 | 0.0 | 3.0 | 0.00 | 0.00 | 0.00 | 10 | 1015.5 |
| 20260901135456 | 81 | 47 | 0.0 | 3.0 | 0.00 | 0.00 | 0.00 | 8 | 1015.4 |
| 20260901135255 | 81 | 47 | 0.0 | 3.0 | 0.00 | 0.00 | 0.00 | 7 | 1015.5 |
| 20260901135056 | 81 | 47 | 0.0 | 3.0 | 0.00 | 0.00 | 0.00 | 6 | 1015.5 |
| 20260901134958 | 81 | 47 | 0.0 | 3.0 | 0.00 | 0.00 | 0.00 | 6 | 1015.5 |
| 20260901134854 | 81 | 47 | 0.0 | 3.0 | 0.00 | 0.00 | 0.00 | 4 | 1015.5 |
| 20260901134755 | 81 | 33 | 0.0 | 1.0 | 0.00 | 0.00 | 0.00 | 100 | 1015.5 |
| 20260901134655 | 81 | 34 | 0.0 | 0.0 | 0.00 | 0.00 | 0.00 | 100 | 1015.5 |
| 20260901134556 | 81 | 34 | 0.0 | 0.0 | 0.00 | 0.00 | 0.00 | 100 | 1015.5 |
| 20260901134356 | 81 | 34 | 0.0 | 1.0 | 0.00 | 0.00 | 0.00 | 100 | 1015.6 |
| 20260901134256 | 81 | 34 | 0.0 | 1.0 | 0.00 | 0.00 | 0.00 | 100 | 1015.6 |
| 20260901134155 | 81 | 34 | 0.0 | 2.0 | 0.00 | 0.00 | 0.00 | 100 | 1015.6 |
| 20260901134056 | 80 | 34 | 0.0 | 2.0 | 0.00 | 0.00 | 0.00 | 100 | 1015.6 |
| 20260901133957 | 80 | 34 | 0.0 | 2.0 | 0.00 | 0.00 | 0.00 | 100 | 1015.6 |
| 20260901133856 | 80 | 34 | 0.0 | 2.0 | 0.00 | 0.00 | 0.00 | 100 | 1015.7 |
| 20260901133756 | 80 | 34 | 0.0 | 2.0 | 0.00 | 0.00 | 0.00 | 100 | 1015.7 |
| 20260901133654 | 80 | 34 | 0.0 | 2.0 | 0.00 | 0.00 | 0.00 | 100 | 1015.6 |
| 20260901133557 | 80 | 34 | 0.0 | 2.0 | 0.00 | 0.00 | 0.00 | 100 | 1015.7 |
| 20260901133456 | 80 | 34 | 0.0 | 2.0 | 0.00 | 0.00 | 0.00 | 100 | 1015.6 |
| 20260901133356 | 80 | 34 | 0.0 | 2.0 | 0.00 | 0.00 | 0.00 | 100 | 1015.6 |
| 20260901133156 | 80 | 34 | 0.0 | 2.0 | 0.00 | 0.00 | 0.00 | 100 | 1015.6 |
| 20260901133054 | 80 | 34 | 0.0 | 2.0 | 0.00 | 0.00 | 0.00 | 100 | 1015.6 |
| 20260901132854 | 80 | 34 | 0.0 | 2.0 | 0.00 | 0.00 | 0.00 | 100 | 1015.6 |
| 20260901132656 | 80 | 34 | 0.0 | 2.0 | 0.00 | 0.00 | 0.00 | 100 | 1015.6 |
| 20260901132556 | 80 | 34 | 0.0 | 2.0 | 0.00 | 0.00 | 0.00 | 100 | 1015.5 |
| 20260901132456 | 80 | 34 | 1.0 | 2.0 | 0.00 | 0.00 | 0.00 | 100 | 1015.5 |
| 20260901132354 | 80 | 34 | 0.0 | 1.0 | 0.00 | 0.00 | 0.00 | 100 | 1015.5 |
| 20260901132256 | 80 | 34 | 0.0 | 1.0 | 0.00 | 0.00 | 0.00 | 100 | 1015.5 |
| 20260901132056 | 80 | 35 | 0.0 | 4.0 | 0.00 | 0.00 | 0.00 | 100 | 1015.4 |
| 20260901131854 | 80 | 34 | 0.0 | 4.0 | 0.00 | 0.00 | 0.00 | 100 | 1015.3 |
| 20260901131756 | 80 | 35 | 0.0 | 4.0 | 0.00 | 0.00 | 0.00 | 100 | 1015.3 |
| 20260901131655 | 80 | 35 | 0.0 | 4.0 | 0.00 | 0.00 | 0.00 | 100 | 1015.3 |
| 20260901131556 | 80 | 35 | 0.0 | 4.0 | 0.00 | 0.00 | 0.00 | 100 | 1015.3 |
| 20260901131456 | 80 | 35 | 0.0 | 4.0 | 0.00 | 0.00 | 0.00 | 100 | 1015.3 |
| 20260901131355 | 79 | 34 | 0.0 | 4.0 | 0.00 | 0.00 | 0.00 | 100 | 1015.3 |
| 20260901131254 | 79 | 34 | 0.0 | 4.0 | 0.00 | 0.00 | 0.00 | 100 | 1015.3 |
| 20260901131156 | 79 | 35 | 3.0 | 4.0 | 0.00 | 0.00 | 0.00 | 100 | 1015.2 |
| 20260901131054 | 79 | 35 | 0.0 | 4.0 | 0.00 | 0.00 | 0.00 | 100 | 1015.2 |
| 20260901130957 | 79 | 37 | 0.0 | 2.0 | 0.00 | 0.00 | 0.00 | 100 | 1015.2 |
| 20260901130855 | 79 | 37 | 0.0 | 2.0 | 0.00 | 0.00 | 0.00 | 100 | 1015.2 |
| 20260901130757 | 79 | 37 | 0.0 | 2.0 | 0.00 | 0.00 | 0.00 | 100 | 1015.0 |
| 20260901130654 | 79 | 37 | 0.0 | 1.0 | 0.00 | 0.00 | 0.00 | 100 | 1015.1 |
| 20260901130555 | 79 | 37 | 0.0 | 1.0 | 0.00 | 0.00 | 0.00 | 100 | 1015.0 |
| 20260901130456 | 79 | 37 | 0.0 | 1.0 | 0.00 | 0.00 | 0.00 | 100 | 1014.9 |
| 20260901130254 | 79 | 37 | 0.0 | 1.0 | 0.00 | 0.00 | 0.00 | 100 | 1014.9 |
| 20260901130155 | 79 | 37 | 0.0 | 1.0 | 0.00 | 0.00 | 0.00 | 100 | 1014.9 |
| 20260901130054 | 79 | 37 | 0.0 | 1.0 | 0.00 | 0.00 | 0.00 | 100 | 1014.9 |
| 20260901125856 | 79 | 37 | 0.0 | 1.0 | 0.00 | 0.00 | 0.00 | 100 | 1014.9 |
| 20260901125757 | 79 | 37 | 0.0 | 1.0 | 0.00 | 0.00 | 0.00 | 100 | 1014.8 |
| 20260901125654 | 79 | 37 | 0.0 | 1.0 | 0.00 | 0.00 | 0.00 | 100 | 1014.8 |
| 20260901125557 | 79 | 37 | 0.0 | 1.0 | 0.00 | 0.00 | 0.00 | 100 | 1014.9 |
| 20260901125457 | 79 | 37 | 0.0 | 3.0 | 0.00 | 0.00 | 0.00 | 100 | 1014.8 |
| 20260901125355 | 79 | 37 | 0.0 | 4.0 | 0.00 | 0.00 | 0.00 | 100 | 1014.8 |
| 20260901125255 | 79 | 37 | 0.0 | 4.0 | 0.00 | 0.00 | 0.00 | 100 | 1014.8 |
| 20260901125158 | 79 | 37 | 0.0 | 4.0 | 0.00 | 0.00 | 0.00 | 100 | 1014.7 |
| 20260901125056 | 79 | 37 | 0.0 | 4.0 | 0.00 | 0.00 | 0.00 | 100 | 1014.8 |
| 20260901125000 | 79 | 37 | 0.0 | 4.0 | 0.00 | 0.00 | 0.00 | 100 | 1014.8 |
| 20260901124855 | 79 | 37 | 0.0 | 4.0 | 0.00 | 0.00 | 0.00 | 100 | 1014.8 |
| 20260901124656 | 79 | 37 | 1.0 | 4.0 | 0.00 | 0.00 | 0.00 | 100 | 1014.7 |
| 20260901124555 | 78 | 37 | 3.0 | 3.0 | 0.00 | 0.00 | 0.00 | 100 | 1014.7 |
| 20260901124455 | 78 | 37 | 0.0 | 3.0 | 0.00 | 0.00 | 0.00 | 100 | 1014.7 |
| 20260901124357 | 78 | 37 | 0.0 | 4.0 | 0.00 | 0.00 | 0.00 | 100 | 1014.7 |
| 20260901124256 | 78 | 37 | 0.0 | 4.0 | 0.00 | 0.00 | 0.00 | 100 | 1014.6 |
| 20260901124155 | 78 | 37 | 0.0 | 4.0 | 0.00 | 0.00 | 0.00 | 100 | 1014.7 |
| 20260901124055 | 78 | 37 | 0.0 | 4.0 | 0.00 | 0.00 | 0.00 | 100 | 1014.6 |
| 20260901123958 | 78 | 37 | 0.0 | 4.0 | 0.00 | 0.00 | 0.00 | 100 | 1014.6 |
| 20260901123856 | 78 | 37 | 0.0 | 4.0 | 0.00 | 0.00 | 0.00 | 100 | 1014.6 |
| 20260901123755 | 78 | 37 | 0.0 | 4.0 | 0.00 | 0.00 | 0.00 | 100 | 1014.6 |
| 20260901123654 | 78 | 37 | 1.0 | 4.0 | 0.00 | 0.00 | 0.00 | 100 | 1014.6 |
| 20260901123556 | 78 | 37 | 3.0 | 4.0 | 0.00 | 0.00 | 0.00 | 100 | 1014.5 |
| 20260901123457 | 78 | 38 | 3.0 | 3.0 | 0.00 | 0.00 | 0.00 | 100 | 1014.5 |
| 20260901123255 | 78 | 38 | 0.0 | 1.0 | 0.00 | 0.00 | 0.00 | 100 | 1014.5 |
| 20260901123157 | 78 | 38 | 0.0 | 1.0 | 0.00 | 0.00 | 0.00 | 100 | 1014.5 |
| 20260901123056 | 78 | 38 | 0.0 | 3.0 | 0.00 | 0.00 | 0.00 | 100 | 1014.5 |
| 20260901122956 | 78 | 38 | 0.0 | 3.0 | 0.00 | 0.00 | 0.00 | 100 | 1014.5 |
| 20260901122855 | 78 | 38 | 0.0 | 3.0 | 0.00 | 0.00 | 0.00 | 100 | 1014.4 |
| 20260901122757 | 78 | 38 | 0.0 | 3.0 | 0.00 | 0.00 | 0.00 | 100 | 1014.4 |
| 20260901122657 | 78 | 38 | 0.0 | 3.0 | 0.00 | 0.00 | 0.00 | 100 | 1014.4 |
| 20260901122355 | 78 | 38 | 0.0 | 3.0 | 0.00 | 0.00 | 0.00 | 100 | 1014.3 |
| 20260901122157 | 78 | 38 | 0.0 | 2.0 | 0.00 | 0.00 | 0.00 | 100 | 1014.3 |
| 20260901121957 | 78 | 38 | 0.0 | 2.0 | 0.00 | 0.00 | 0.00 | 100 | 1014.2 |
| 20260901121858 | 78 | 38 | 0.0 | 2.0 | 0.00 | 0.00 | 0.00 | 100 | 1014.2 |
| 20260901121757 | 78 | 38 | 0.0 | 2.0 | 0.00 | 0.00 | 0.00 | 100 | 1014.2 |
| 20260901121655 | 78 | 38 | 0.0 | 2.0 | 0.00 | 0.00 | 0.00 | 100 | 1014.3 |
| 20260901121557 | 78 | 38 | 0.0 | 2.0 | 0.00 | 0.00 | 0.00 | 100 | 1014.2 |
| 20260901121457 | 78 | 38 | 2.0 | 2.0 | 0.00 | 0.00 | 0.00 | 100 | 1014.3 |
| 20260901121257 | 78 | 38 | 0.0 | 2.0 | 0.00 | 0.00 | 0.00 | 100 | 1014.2 |
| 20260901121157 | 78 | 38 | 0.0 | 2.0 | 0.00 | 0.00 | 0.00 | 100 | 1014.3 |
| 20260901121057 | 78 | 38 | 0.0 | 2.0 | 0.00 | 0.00 | 0.00 | 100 | 1014.2 |
| 20260901120755 | 77 | 38 | 0.0 | 2.0 | 0.00 | 0.00 | 0.00 | 100 | 1014.2 |
| 20260901120657 | 77 | 38 | 0.0 | 2.0 | 0.00 | 0.00 | 0.00 | 100 | 1014.3 |
| 20260901120455 | 77 | 38 | 0.0 | 2.0 | 0.00 | 0.00 | 0.00 | 100 | 1014.3 |
| 20260901120355 | 77 | 38 | 0.0 | 2.0 | 0.00 | 0.00 | 0.00 | 100 | 1014.2 |
| 20260901120257 | 77 | 38 | 0.0 | 2.0 | 0.00 | 0.00 | 0.00 | 100 | 1014.2 |
| 20260901120157 | 77 | 38 | 0.0 | 0.0 | 0.00 | 0.00 | 0.00 | 100 | 1014.2 |
| 20260901120054 | 77 | 38 | 0.0 | 0.0 | 0.00 | 0.00 | 0.00 | 100 | 1014.2 |
| 20260901115957 | 77 | 38 | 0.0 | 0.0 | 0.00 | 0.00 | 0.00 | 100 | 1014.2 |
| 20260901115857 | 77 | 38 | 0.0 | 0.0 | 0.00 | 0.00 | 0.00 | 100 | 1014.2 |
| 20260901115757 | 77 | 38 | 0.0 | 0.0 | 0.00 | 0.00 | 0.00 | 100 | 1014.2 |
| 20260901115655 | 77 | 38 | 0.0 | 1.0 | 0.00 | 0.00 | 0.00 | 100 | 1014.2 |
| 20260901115556 | 77 | 38 | 0.0 | 1.0 | 0.00 | 0.00 | 0.00 | 100 | 1014.2 |
| 20260901115457 | 77 | 38 | 0.0 | 1.0 | 0.00 | 0.00 | 0.00 | 100 | 1014.1 |
| 20260901115255 | 77 | 38 | 0.0 | 1.0 | 0.00 | 0.00 | 0.00 | 100 | 1014.1 |
| 20260901115155 | 77 | 38 | 0.0 | 1.0 | 0.00 | 0.00 | 0.00 | 100 | 1014.1 |
| 20260901114958 | 77 | 38 | 0.0 | 1.0 | 0.00 | 0.00 | 0.00 | 100 | 1014.1 |
| 20260901114857 | 77 | 38 | 0.0 | 1.0 | 0.00 | 0.00 | 0.00 | 100 | 1014.2 |
| 20260901114758 | 77 | 38 | 0.0 | 1.0 | 0.00 | 0.00 | 0.00 | 100 | 1014.2 |
| 20260901114657 | 77 | 38 | 0.0 | 2.0 | 0.00 | 0.00 | 0.00 | 100 | 1014.2 |
| 20260901114557 | 77 | 38 | 0.0 | 2.0 | 0.00 | 0.00 | 0.00 | 100 | 1014.2 |
| 20260901114455 | 77 | 38 | 0.0 | 2.0 | 0.00 | 0.00 | 0.00 | 100 | 1014.1 |
| 20260901114355 | 77 | 38 | 0.0 | 2.0 | 0.00 | 0.00 | 0.00 | 100 | 1014.1 |
| 20260901114057 | 77 | 38 | 0.0 | 2.0 | 0.00 | 0.00 | 0.00 | 100 | 1014.2 |
| 20260901113957 | 77 | 38 | 0.0 | 2.0 | 0.00 | 0.00 | 0.00 | 100 | 1014.1 |
| 20260901113855 | 77 | 38 | 0.0 | 2.0 | 0.00 | 0.00 | 0.00 | 100 | 1014.1 |
| 20260901113757 | 77 | 38 | 0.0 | 0.0 | 0.00 | 0.00 | 0.00 | 100 | 1014.1 |
| 20260901113657 | 77 | 38 | 0.0 | 1.0 | 0.00 | 0.00 | 0.00 | 100 | 1014.1 |
| 20260901113556 | 77 | 38 | 0.0 | 1.0 | 0.00 | 0.00 | 0.00 | 100 | 1014.2 |
| 20260901113455 | 77 | 38 | 0.0 | 1.0 | 0.00 | 0.00 | 0.00 | 100 | 1014.2 |
| 20260901113357 | 77 | 38 | 0.0 | 1.0 | 0.00 | 0.00 | 0.00 | 100 | 1014.2 |
| 20260901113257 | 77 | 38 | 0.0 | 1.0 | 0.00 | 0.00 | 0.00 | 100 | 1014.2 |
| 20260901113156 | 77 | 38 | 0.0 | 1.0 | 0.00 | 0.00 | 0.00 | 100 | 1014.2 |
| 20260901113055 | 77 | 38 | 0.0 | 1.0 | 0.00 | 0.00 | 0.00 | 100 | 1014.2 |
| 20260901112958 | 77 | 38 | 0.0 | 1.0 | 0.00 | 0.00 | 0.00 | 100 | 1014.2 |
| 20260901112755 | 77 | 38 | 0.0 | 0.0 | 0.00 | 0.00 | 0.00 | 100 | 1014.1 |
| 20260901112655 | 77 | 38 | 0.0 | 0.0 | 0.00 | 0.00 | 0.00 | 100 | 1014.1 |
| 20260901112557 | 77 | 38 | 0.0 | 0.0 | 0.00 | 0.00 | 0.00 | 100 | 1014.1 |
| 20260901112457 | 77 | 38 | 0.0 | 0.0 | 0.00 | 0.00 | 0.00 | 100 | 1014.1 |
| 20260901112355 | 77 | 38 | 0.0 | 0.0 | 0.00 | 0.00 | 0.00 | 100 | 1014.1 |
| 20260901112255 | 77 | 38 | 0.0 | 0.0 | 0.00 | 0.00 | 0.00 | 100 | 1014.1 |
| 20260901112157 | 77 | 38 | 0.0 | 0.0 | 0.00 | 0.00 | 0.00 | 100 | 1014.1 |
| 20260901112057 | 77 | 38 | 0.0 | 0.0 | 0.00 | 0.00 | 0.00 | 100 | 1014.1 |
| 20260901111956 | 77 | 38 | 0.0 | 0.0 | 0.00 | 0.00 | 0.00 | 100 | 1014.1 |
| 20260901111855 | 77 | 38 | 0.0 | 0.0 | 0.00 | 0.00 | 0.00 | 100 | 1014.0 |
| 20260901111757 | 77 | 38 | 0.0 | 0.0 | 0.00 | 0.00 | 0.00 | 100 | 1014.1 |
| 20260901111656 | 77 | 38 | 0.0 | 0.0 | 0.00 | 0.00 | 0.00 | 100 | 1014.1 |
| 20260901111555 | 77 | 38 | 0.0 | 0.0 | 0.00 | 0.00 | 0.00 | 100 | 1014.1 |
| 20260901111455 | 77 | 38 | 0.0 | 0.0 | 0.00 | 0.00 | 0.00 | 100 | 1014.0 |
| 20260901111357 | 77 | 38 | 0.0 | 0.0 | 0.00 | 0.00 | 0.00 | 100 | 1014.0 |
| 20260901111257 | 77 | 38 | 0.0 | 0.0 | 0.00 | 0.00 | 0.00 | 100 | 1014.0 |
| 20260901111157 | 77 | 38 | 0.0 | 0.0 | 0.00 | 0.00 | 0.00 | 100 | 1014.0 |
| 20260901111055 | 77 | 38 | 0.0 | 0.0 | 0.00 | 0.00 | 0.00 | 100 | 1014.0 |
| 20260901110958 | 77 | 38 | 0.0 | 0.0 | 0.00 | 0.00 | 0.00 | 100 | 1014.0 |
| 20260901110755 | 77 | 38 | 0.0 | 0.0 | 0.00 | 0.00 | 0.00 | 100 | 1014.0 |
| 20260901110655 | 77 | 38 | 0.0 | 0.0 | 0.00 | 0.00 | 0.00 | 100 | 1014.0 |
| 20260901110555 | 77 | 38 | 0.0 | 0.0 | 0.00 | 0.00 | 0.00 | 100 | 1014.0 |
| 20260901110457 | 77 | 38 | 0.0 | 0.0 | 0.00 | 0.00 | 0.00 | 100 | 1014.0 |
| 20260901110356 | 77 | 38 | 0.0 | 0.0 | 0.00 | 0.00 | 0.00 | 100 | 1014.0 |
| 20260901110255 | 77 | 38 | 0.0 | 0.0 | 0.00 | 0.00 | 0.00 | 100 | 1014.0 |
| 20260901110158 | 77 | 38 | 0.0 | 0.0 | 0.00 | 0.00 | 0.00 | 100 | 1014.0 |
| 20260901110002 | 77 | 38 | 0.0 | 0.0 | 0.00 | 0.00 | 0.00 | 100 | 1014.0 |
| 20260901105857 | 77 | 38 | 0.0 | 0.0 | 0.00 | 0.00 | 0.00 | 100 | 1014.0 |
| 20260901105756 | 77 | 38 | 0.0 | 0.0 | 0.00 | 0.00 | 0.00 | 100 | 1014.0 |
| 20260901105657 | 77 | 38 | 0.0 | 0.0 | 0.00 | 0.00 | 0.00 | 100 | 1014.1 |
| 20260901105557 | 77 | 38 | 0.0 | 0.0 | 0.00 | 0.00 | 0.00 | 100 | 1014.1 |
| 20260901105455 | 77 | 38 | 0.0 | 0.0 | 0.00 | 0.00 | 0.00 | 100 | 1014.0 |
| 20260901105355 | 77 | 38 | 0.0 | 0.0 | 0.00 | 0.00 | 0.00 | 100 | 1014.0 |
| 20260901105157 | 77 | 38 | 0.0 | 0.0 | 0.00 | 0.00 | 0.00 | 100 | 1014.0 |
| 20260901105055 | 77 | 38 | 0.0 | 0.0 | 0.00 | 0.00 | 0.00 | 100 | 1014.0 |
| 20260901104956 | 77 | 38 | 0.0 | 0.0 | 0.00 | 0.00 | 0.00 | 100 | 1014.0 |
| 20260901104857 | 77 | 38 | 0.0 | 0.0 | 0.00 | 0.00 | 0.00 | 100 | 1014.0 |
| 20260901104757 | 77 | 38 | 0.0 | 0.0 | 0.00 | 0.00 | 0.00 | 100 | 1014.0 |
| 20260901104555 | 78 | 38 | 0.0 | 0.0 | 0.00 | 0.00 | 0.00 | 100 | 1014.0 |
| 20260901104457 | 78 | 38 | 0.0 | 0.0 | 0.00 | 0.00 | 0.00 | 100 | 1013.9 |
| 20260901104357 | 78 | 38 | 0.0 | 0.0 | 0.00 | 0.00 | 0.00 | 100 | 1013.9 |
| 20260901104254 | 78 | 38 | 0.0 | 0.0 | 0.00 | 0.00 | 0.00 | 100 | 1013.9 |
| 20260901104156 | 78 | 38 | 0.0 | 0.0 | 0.00 | 0.00 | 0.00 | 100 | 1013.9 |
| 20260901104056 | 78 | 38 | 0.0 | 0.0 | 0.00 | 0.00 | 0.00 | 100 | 1013.9 |
| 20260901103958 | 78 | 38 | 0.0 | 0.0 | 0.00 | 0.00 | 0.00 | 100 | 1013.9 |
| 20260901103855 | 78 | 38 | 0.0 | 0.0 | 0.00 | 0.00 | 0.00 | 100 | 1013.9 |
| 20260901103755 | 78 | 38 | 0.0 | 0.0 | 0.00 | 0.00 | 0.00 | 100 | 1014.0 |
| 20260901103657 | 78 | 38 | 0.0 | 0.0 | 0.00 | 0.00 | 0.00 | 100 | 1014.0 |
| 20260901103557 | 78 | 38 | 0.0 | 0.0 | 0.00 | 0.00 | 0.00 | 100 | 1014.0 |
| 20260901103455 | 78 | 38 | 0.0 | 0.0 | 0.00 | 0.00 | 0.00 | 100 | 1014.0 |
| 20260901103355 | 78 | 38 | 0.0 | 0.0 | 0.00 | 0.00 | 0.00 | 100 | 1014.0 |
| 20260901103256 | 78 | 38 | 0.0 | 0.0 | 0.00 | 0.00 | 0.00 | 100 | 1014.0 |
| 20260901103157 | 78 | 38 | 0.0 | 0.0 | 0.00 | 0.00 | 0.00 | 100 | 1013.9 |
| 20260901102957 | 78 | 38 | 0.0 | 0.0 | 0.00 | 0.00 | 0.00 | 100 | 1013.9 |
| 20260901102757 | 78 | 38 | 0.0 | 0.0 | 0.00 | 0.00 | 0.00 | 100 | 1013.9 |
| 20260901102556 | 78 | 38 | 0.0 | 0.0 | 0.00 | 0.00 | 0.00 | 100 | 1013.9 |
| 20260901102455 | 78 | 38 | 0.0 | 0.0 | 0.00 | 0.00 | 0.00 | 100 | 1013.9 |
| 20260901102357 | 78 | 38 | 0.0 | 0.0 | 0.00 | 0.00 | 0.00 | 100 | 1013.9 |
| 20260901102255 | 78 | 38 | 0.0 | 0.0 | 0.00 | 0.00 | 0.00 | 100 | 1013.9 |
| 20260901102156 | 78 | 38 | 0.0 | 0.0 | 0.00 | 0.00 | 0.00 | 100 | 1013.9 |
| 20260901102055 | 78 | 38 | 0.0 | 0.0 | 0.00 | 0.00 | 0.00 | 100 | 1013.9 |
| 20260901101958 | 78 | 38 | 0.0 | 0.0 | 0.00 | 0.00 | 0.00 | 100 | 1013.9 |
| 20260901101858 | 78 | 38 | 0.0 | 0.0 | 0.00 | 0.00 | 0.00 | 100 | 1013.9 |
| 20260901101655 | 78 | 38 | 0.0 | 0.0 | 0.00 | 0.00 | 0.00 | 100 | 1013.9 |
| 20260901101457 | 78 | 38 | 0.0 | 0.0 | 0.00 | 0.00 | 0.00 | 100 | 1013.8 |
| 20260901101256 | 78 | 38 | 0.0 | 0.0 | 0.00 | 0.00 | 0.00 | 100 | 1013.8 |
| 20260901101157 | 78 | 38 | 0.0 | 0.0 | 0.00 | 0.00 | 0.00 | 100 | 1013.8 |
| 20260901101057 | 78 | 38 | 0.0 | 0.0 | 0.00 | 0.00 | 0.00 | 100 | 1013.9 |
| 20260901100957 | 78 | 38 | 0.0 | 0.0 | 0.00 | 0.00 | 0.00 | 100 | 1013.8 |
| 20260901100855 | 78 | 38 | 0.0 | 0.0 | 0.00 | 0.00 | 0.00 | 100 | 1013.9 |
| 20260901100759 | 78 | 38 | 0.0 | 0.0 | 0.00 | 0.00 | 0.00 | 100 | 1013.9 |
| 20260901100656 | 78 | 38 | 0.0 | 0.0 | 0.00 | 0.00 | 0.00 | 100 | 1013.9 |
| 20260901100555 | 78 | 38 | 0.0 | 0.0 | 0.00 | 0.00 | 0.00 | 100 | 1013.9 |
| 20260901100455 | 78 | 38 | 0.0 | 0.0 | 0.00 | 0.00 | 0.00 | 100 | 1013.9 |
| 20260901100356 | 78 | 38 | 0.0 | 0.0 | 0.00 | 0.00 | 0.00 | 100 | 1013.9 |
| 20260901100257 | 78 | 38 | 0.0 | 0.0 | 0.00 | 0.00 | 0.00 | 100 | 1013.9 |
| 20260901100157 | 78 | 38 | 0.0 | 0.0 | 0.00 | 0.00 | 0.00 | 100 | 1013.9 |
| 20260901100055 | 78 | 38 | 0.0 | 0.0 | 0.00 | 0.00 | 0.00 | 100 | 1013.9 |
| 20260901095959 | 78 | 38 | 0.0 | 0.0 | 0.00 | 0.00 | 0.00 | 100 | 1013.9 |
| 20260901095857 | 78 | 38 | 0.0 | 0.0 | 0.00 | 0.00 | 0.00 | 100 | 1013.9 |
| 20260901095755 | 78 | 38 | 0.0 | 0.0 | 0.00 | 0.00 | 0.00 | 100 | 1013.9 |
| 20260901095457 | 78 | 38 | 0.0 | 0.0 | 0.00 | 0.00 | 0.00 | 100 | 1013.9 |
| 20260901095357 | 78 | 38 | 0.0 | 0.0 | 0.00 | 0.00 | 0.00 | 100 | 1013.9 |
| 20260901095255 | 78 | 38 | 0.0 | 0.0 | 0.00 | 0.00 | 0.00 | 100 | 1013.9 |
| 20260901095157 | 78 | 38 | 0.0 | 0.0 | 0.00 | 0.00 | 0.00 | 100 | 1013.9 |
| 20260901094958 | 78 | 38 | 0.0 | 0.0 | 0.00 | 0.00 | 0.00 | 100 | 1013.9 |
| 20260901094857 | 78 | 38 | 0.0 | 0.0 | 0.00 | 0.00 | 0.00 | 100 | 1014.0 |
| 20260901094755 | 78 | 38 | 0.0 | 0.0 | 0.00 | 0.00 | 0.00 | 100 | 1013.9 |
| 20260901094656 | 78 | 38 | 0.0 | 0.0 | 0.00 | 0.00 | 0.00 | 100 | 1014.0 |
| 20260901094557 | 78 | 38 | 0.0 | 0.0 | 0.00 | 0.00 | 0.00 | 100 | 1014.0 |
| 20260901094457 | 78 | 38 | 0.0 | 0.0 | 0.00 | 0.00 | 0.00 | 100 | 1014.0 |
| 20260901094356 | 78 | 38 | 0.0 | 0.0 | 0.00 | 0.00 | 0.00 | 100 | 1013.9 |
| 20260901094257 | 78 | 38 | 0.0 | 0.0 | 0.00 | 0.00 | 0.00 | 100 | 1014.0 |
| 20260901094155 | 78 | 38 | 0.0 | 0.0 | 0.00 | 0.00 | 0.00 | 100 | 1014.0 |
| 20260901093857 | 78 | 38 | 0.0 | 0.0 | 0.00 | 0.00 | 0.00 | 100 | 1014.0 |
| 20260901093757 | 78 | 38 | 0.0 | 0.0 | 0.00 | 0.00 | 0.00 | 100 | 1014.0 |
| 20260901093656 | 78 | 38 | 0.0 | 0.0 | 0.00 | 0.00 | 0.00 | 100 | 1014.0 |
| 20260901093555 | 78 | 38 | 0.0 | 0.0 | 0.00 | 0.00 | 0.00 | 100 | 1014.0 |
| 20260901093357 | 78 | 38 | 0.0 | 0.0 | 0.00 | 0.00 | 0.00 | 100 | 1014.0 |
| 20260901093255 | 78 | 38 | 0.0 | 0.0 | 0.00 | 0.00 | 0.00 | 100 | 1014.0 |
| 20260901093157 | 78 | 38 | 0.0 | 0.0 | 0.00 | 0.00 | 0.00 | 100 | 1014.0 |
| 20260901093057 | 78 | 38 | 0.0 | 0.0 | 0.00 | 0.00 | 0.00 | 100 | 1014.0 |
| 20260901092957 | 78 | 38 | 0.0 | 0.0 | 0.00 | 0.00 | 0.00 | 100 | 1014.0 |
| 20260901092856 | 78 | 38 | 0.0 | 0.0 | 0.00 | 0.00 | 0.00 | 100 | 1014.0 |
| 20260901092757 | 78 | 38 | 0.0 | 0.0 | 0.00 | 0.00 | 0.00 | 100 | 1014.0 |
| 20260901092657 | 78 | 38 | 0.0 | 0.0 | 0.00 | 0.00 | 0.00 | 100 | 1014.0 |
| 20260901092357 | 78 | 38 | 0.0 | 0.0 | 0.00 | 0.00 | 0.00 | 100 | 1014.0 |
| 20260901092255 | 79 | 38 | 0.0 | 0.0 | 0.00 | 0.00 | 0.00 | 100 | 1014.0 |
| 20260901092158 | 79 | 38 | 0.0 | 0.0 | 0.00 | 0.00 | 0.00 | 100 | 1014.1 |
| 20260901092056 | 79 | 38 | 0.0 | 0.0 | 0.00 | 0.00 | 0.00 | 100 | 1014.1 |
| 20260901091957 | 79 | 38 | 0.0 | 0.0 | 0.00 | 0.00 | 0.00 | 100 | 1014.1 |
| 20260901091856 | 79 | 38 | 0.0 | 0.0 | 0.00 | 0.00 | 0.00 | 100 | 1014.1 |
| 20260901091756 | 79 | 38 | 0.0 | 0.0 | 0.00 | 0.00 | 0.00 | 100 | 1014.2 |
| 20260901091557 | 79 | 38 | 0.0 | 0.0 | 0.00 | 0.00 | 0.00 | 100 | 1014.2 |
| 20260901091456 | 79 | 38 | 0.0 | 0.0 | 0.00 | 0.00 | 0.00 | 100 | 1014.2 |
| 20260901091357 | 79 | 38 | 0.0 | 0.0 | 0.00 | 0.00 | 0.00 | 100 | 1014.2 |
| 20260901091057 | 79 | 38 | 0.0 | 0.0 | 0.00 | 0.00 | 0.00 | 100 | 1014.3 |
| 20260901090958 | 79 | 38 | 0.0 | 0.0 | 0.00 | 0.00 | 0.00 | 100 | 1014.3 |
| 20260901090856 | 79 | 38 | 0.0 | 0.0 | 0.00 | 0.00 | 0.00 | 100 | 1014.4 |
| 20260901090757 | 79 | 38 | 0.0 | 0.0 | 0.00 | 0.00 | 0.00 | 100 | 1014.3 |
| 20260901090657 | 79 | 38 | 0.0 | 0.0 | 0.00 | 0.00 | 0.00 | 100 | 1014.3 |
| 20260901090556 | 79 | 38 | 0.0 | 0.0 | 0.00 | 0.00 | 0.00 | 100 | 1014.3 |
| 20260901090355 | 79 | 38 | 0.0 | 0.0 | 0.00 | 0.00 | 0.00 | 100 | 1014.3 |
| 20260901090255 | 79 | 38 | 0.0 | 0.0 | 0.00 | 0.00 | 0.00 | 100 | 1014.3 |
| 20260901090159 | 79 | 38 | 0.0 | 0.0 | 0.00 | 0.00 | 0.00 | 100 | 1014.3 |
| 20260901090054 | 79 | 38 | 0.0 | 0.0 | 0.00 | 0.00 | 0.00 | 100 | 1014.2 |
| 20260901090011 | 79 | 38 | 0.0 | 0.0 | 0.00 | 0.00 | 0.00 | 100 | 1014.2 |
| 20260901085657 | 79 | 38 | 0.0 | 0.0 | 0.00 | 0.00 | 0.00 | 100 | 1014.3 |
| 20260901085555 | 79 | 38 | 0.0 | 0.0 | 0.00 | 0.00 | 0.00 | 100 | 1014.3 |
| 20260901085357 | 79 | 38 | 0.0 | 0.0 | 0.00 | 0.00 | 0.00 | 100 | 1014.3 |
| 20260901085257 | 79 | 38 | 0.0 | 0.0 | 0.00 | 0.00 | 0.00 | 100 | 1014.3 |
| 20260901085158 | 79 | 38 | 0.0 | 0.0 | 0.00 | 0.00 | 0.00 | 100 | 1014.3 |
| 20260901084858 | 79 | 38 | 0.0 | 0.0 | 0.00 | 0.00 | 0.00 | 100 | 1014.3 |
| 20260901084757 | 79 | 38 | 0.0 | 1.0 | 0.00 | 0.00 | 0.00 | 100 | 1014.3 |
| 20260901084655 | 79 | 38 | 0.0 | 1.0 | 0.00 | 0.00 | 0.00 | 100 | 1014.2 |
| 20260901084557 | 79 | 38 | 0.0 | 1.0 | 0.00 | 0.00 | 0.00 | 100 | 1014.3 |
| 20260901084457 | 79 | 38 | 0.0 | 1.0 | 0.00 | 0.00 | 0.00 | 100 | 1014.3 |
| 20260901084357 | 79 | 38 | 0.0 | 1.0 | 0.00 | 0.00 | 0.00 | 100 | 1014.3 |
| 20260901084256 | 79 | 38 | 0.0 | 1.0 | 0.00 | 0.00 | 0.00 | 100 | 1014.3 |
| 20260901084156 | 79 | 38 | 0.0 | 1.0 | 0.00 | 0.00 | 0.00 | 100 | 1014.2 |
| 20260901084057 | 79 | 38 | 0.0 | 1.0 | 0.00 | 0.00 | 0.00 | 100 | 1014.3 |
| 20260901084006 | 79 | 38 | 0.0 | 1.0 | 0.00 | 0.00 | 0.00 | 100 | 1014.3 |
| 20260901083855 | 79 | 38 | 0.0 | 0.0 | 0.00 | 0.00 | 0.00 | 100 | 1014.2 |
| 20260901083755 | 79 | 38 | 0.0 | 0.0 | 0.00 | 0.00 | 0.00 | 100 | 1014.2 |
| 20260901083656 | 78 | 38 | 0.0 | 0.0 | 0.00 | 0.00 | 0.00 | 100 | 1014.2 |
| 20260901083557 | 78 | 38 | 0.0 | 0.0 | 0.00 | 0.00 | 0.00 | 100 | 1014.3 |
| 20260901083455 | 78 | 38 | 0.0 | 0.0 | 0.00 | 0.00 | 0.00 | 100 | 1014.2 |
| 20260901083355 | 78 | 38 | 0.0 | 0.0 | 0.00 | 0.00 | 0.00 | 100 | 1014.2 |
| 20260901083257 | 78 | 38 | 0.0 | 0.0 | 0.00 | 0.00 | 0.00 | 100 | 1014.2 |
| 20260901083157 | 78 | 38 | 0.0 | 0.0 | 0.00 | 0.00 | 0.00 | 100 | 1014.2 |
| 20260901083005 | 78 | 38 | 0.0 | 0.0 | 0.00 | 0.00 | 0.00 | 100 | 1014.1 |
| 20260901082758 | 78 | 38 | 0.0 | 0.0 | 0.00 | 0.00 | 0.00 | 100 | 1014.1 |
| 20260901082656 | 78 | 38 | 0.0 | 0.0 | 0.00 | 0.00 | 0.00 | 100 | 1014.1 |
| 20260901082559 | 78 | 38 | 0.0 | 0.0 | 0.00 | 0.00 | 0.00 | 100 | 1014.1 |
| 20260901082458 | 78 | 38 | 0.0 | 0.0 | 0.00 | 0.00 | 0.00 | 100 | 1014.1 |
| 20260901082256 | 78 | 38 | 0.0 | 0.0 | 0.00 | 0.00 | 0.00 | 100 | 1014.0 |
| 20260901082156 | 78 | 38 | 0.0 | 0.0 | 0.00 | 0.00 | 0.00 | 100 | 1014.0 |
| 20260901082057 | 78 | 38 | 0.0 | 0.0 | 0.00 | 0.00 | 0.00 | 100 | 1014.1 |
| 20260901082007 | 78 | 38 | 0.0 | 0.0 | 0.00 | 0.00 | 0.00 | 100 | 1014.1 |
| 20260901081855 | 78 | 38 | 0.0 | 0.0 | 0.00 | 0.00 | 0.00 | 100 | 1014.1 |
| 20260901081756 | 78 | 38 | 0.0 | 0.0 | 0.00 | 0.00 | 0.00 | 100 | 1014.1 |
| 20260901081658 | 78 | 38 | 0.0 | 0.0 | 0.00 | 0.00 | 0.00 | 100 | 1014.1 |
| 20260901081557 | 78 | 38 | 0.0 | 0.0 | 0.00 | 0.00 | 0.00 | 100 | 1014.1 |
| 20260901081457 | 78 | 38 | 0.0 | 0.0 | 0.00 | 0.00 | 0.00 | 100 | 1014.1 |
| 20260901081355 | 78 | 38 | 0.0 | 0.0 | 0.00 | 0.00 | 0.00 | 100 | 1014.1 |
| 20260901081257 | 78 | 38 | 0.0 | 0.0 | 0.00 | 0.00 | 0.00 | 100 | 1014.2 |
| 20260901081057 | 78 | 38 | 0.0 | 0.0 | 0.00 | 0.00 | 0.00 | 100 | 1014.2 |
| 20260901081005 | 78 | 38 | 0.0 | 0.0 | 0.00 | 0.00 | 0.00 | 100 | 1014.2 |
| 20260901080856 | 78 | 38 | 0.0 | 0.0 | 0.00 | 0.00 | 0.00 | 100 | 1014.2 |
| 20260901080757 | 78 | 38 | 0.0 | 0.0 | 0.00 | 0.00 | 0.00 | 100 | 1014.2 |
| 20260901080656 | 78 | 38 | 0.0 | 0.0 | 0.00 | 0.00 | 0.00 | 100 | 1014.2 |
| 20260901080457 | 78 | 38 | 0.0 | 0.0 | 0.00 | 0.00 | 0.00 | 100 | 1014.2 |
| 20260901080357 | 78 | 38 | 0.0 | 0.0 | 0.00 | 0.00 | 0.00 | 100 | 1014.2 |
| 20260901080255 | 78 | 38 | 0.0 | 0.0 | 0.00 | 0.00 | 0.00 | 100 | 1014.2 |
| 20260901080156 | 78 | 38 | 0.0 | 0.0 | 0.00 | 0.00 | 0.00 | 100 | 1014.3 |
| 20260901080055 | 78 | 38 | 0.0 | 0.0 | 0.00 | 0.00 | 0.00 | 100 | 1014.2 |
| 20260901080000 | 78 | 38 | 0.0 | 0.0 | 0.00 | 0.00 | 0.00 | 100 | 1014.2 |
| 20260901075856 | 78 | 38 | 0.0 | 0.0 | 0.00 | 0.00 | 0.00 | 100 | 1014.3 |
| 20260901075755 | 78 | 38 | 0.0 | 0.0 | 0.00 | 0.00 | 0.00 | 100 | 1014.3 |
| 20260901075655 | 78 | 38 | 0.0 | 0.0 | 0.00 | 0.00 | 0.00 | 100 | 1014.4 |
| 20260901075557 | 78 | 38 | 0.0 | 0.0 | 0.00 | 0.00 | 0.00 | 100 | 1014.3 |
| 20260901075457 | 78 | 38 | 0.0 | 0.0 | 0.00 | 0.00 | 0.00 | 100 | 1014.4 |
| 20260901075157 | 78 | 38 | 0.0 | 0.0 | 0.00 | 0.00 | 0.00 | 100 | 1014.4 |
| 20260901075057 | 78 | 38 | 0.0 | 0.0 | 0.00 | 0.00 | 0.00 | 100 | 1014.4 |
| 20260901074855 | 78 | 38 | 0.0 | 0.0 | 0.00 | 0.00 | 0.00 | 100 | 1014.5 |
| 20260901074757 | 78 | 38 | 0.0 | 0.0 | 0.00 | 0.00 | 0.00 | 100 | 1014.4 |
| 20260901074656 | 78 | 38 | 0.0 | 0.0 | 0.00 | 0.00 | 0.00 | 1 | 1014.5 |
| 20260901074556 | 78 | 38 | 0.0 | 0.0 | 0.00 | 0.00 | 0.00 | 1 | 1014.5 |
| 20260901074455 | 78 | 38 | 0.0 | 0.0 | 0.00 | 0.00 | 0.00 | 3 | 1014.5 |
| 20260901074356 | 78 | 38 | 0.0 | 0.0 | 0.00 | 0.00 | 0.00 | 4 | 1014.5 |
| 20260901074256 | 78 | 38 | 0.0 | 0.0 | 0.00 | 0.00 | 0.00 | 4 | 1014.5 |
| 20260901074157 | 78 | 38 | 0.0 | 0.0 | 0.00 | 0.00 | 0.00 | 3 | 1014.5 |
| 20260901074057 | 78 | 38 | 0.0 | 0.0 | 0.00 | 0.00 | 0.00 | 2 | 1014.5 |
| 20260901073958 | 78 | 38 | 0.0 | 0.0 | 0.00 | 0.00 | 0.00 | 3 | 1014.5 |
| 20260901073857 | 78 | 38 | 0.0 | 0.0 | 0.00 | 0.00 | 0.00 | 3 | 1014.4 |
| 20260901073756 | 78 | 38 | 0.0 | 0.0 | 0.00 | 0.00 | 0.00 | 3 | 1014.5 |
| 20260901073555 | 78 | 38 | 0.0 | 0.0 | 0.00 | 0.00 | 0.00 | 3 | 1014.4 |
| 20260901073457 | 78 | 38 | 0.0 | 0.0 | 0.00 | 0.00 | 0.00 | 3 | 1014.4 |
| 20260901073255 | 78 | 38 | 0.0 | 0.0 | 0.00 | 0.00 | 0.00 | 1 | 1014.4 |
| 20260901073157 | 78 | 38 | 0.0 | 0.0 | 0.00 | 0.00 | 0.00 | 2 | 1014.4 |
| 20260901073057 | 78 | 38 | 0.0 | 0.0 | 0.00 | 0.00 | 0.00 | 1 | 1014.4 |
| 20260901072958 | 78 | 38 | 0.0 | 0.0 | 0.00 | 0.00 | 0.00 | 100 | 1014.4 |
| 20260901072855 | 78 | 38 | 0.0 | 0.0 | 0.00 | 0.00 | 0.00 | 100 | 1014.4 |
| 20260901072757 | 78 | 38 | 0.0 | 0.0 | 0.00 | 0.00 | 0.00 | 100 | 1014.4 |
| 20260901072557 | 78 | 38 | 0.0 | 0.0 | 0.00 | 0.00 | 0.00 | 2 | 1014.4 |
| 20260901072355 | 78 | 38 | 0.0 | 0.0 | 0.00 | 0.00 | 0.00 | 4 | 1014.4 |
| 20260901072257 | 79 | 38 | 0.0 | 0.0 | 0.00 | 0.00 | 0.00 | 6 | 1014.5 |
| 20260901072158 | 79 | 38 | 0.0 | 0.0 | 0.00 | 0.00 | 0.00 | 6 | 1014.4 |
| 20260901072055 | 79 | 38 | 0.0 | 0.0 | 0.00 | 0.00 | 0.00 | 8 | 1014.4 |
| 20260901071757 | 79 | 38 | 0.0 | 0.0 | 0.00 | 0.00 | 0.00 | 8 | 1014.4 |
| 20260901071655 | 79 | 38 | 0.0 | 0.0 | 0.00 | 0.00 | 0.00 | 8 | 1014.4 |
| 20260901071555 | 79 | 38 | 0.0 | 0.0 | 0.00 | 0.00 | 0.00 | 8 | 1014.4 |
| 20260901071457 | 79 | 38 | 0.0 | 0.0 | 0.00 | 0.00 | 0.00 | 7 | 1014.4 |
| 20260901071358 | 79 | 38 | 0.0 | 0.0 | 0.00 | 0.00 | 0.00 | 8 | 1014.4 |
| 20260901071155 | 79 | 38 | 0.0 | 0.0 | 0.00 | 0.00 | 0.00 | 9 | 1014.5 |
| 20260901071057 | 79 | 38 | 0.0 | 0.0 | 0.00 | 0.00 | 0.00 | 8 | 1014.4 |
| 20260901070958 | 79 | 38 | 0.0 | 0.0 | 0.00 | 0.00 | 0.00 | 7 | 1014.4 |
| 20260901070855 | 79 | 38 | 0.0 | 0.0 | 0.00 | 0.00 | 0.00 | 7 | 1014.5 |
| 20260901070756 | 79 | 38 | 0.0 | 0.0 | 0.00 | 0.00 | 0.00 | 8 | 1014.5 |
| 20260901070657 | 79 | 38 | 0.0 | 0.0 | 0.00 | 0.00 | 0.00 | 9 | 1014.5 |
| 20260901070557 | 79 | 38 | 0.0 | 0.0 | 0.00 | 0.00 | 0.00 | 9 | 1014.5 |
| 20260901070456 | 79 | 38 | 0.0 | 0.0 | 0.00 | 0.00 | 0.00 | 11 | 1014.6 |
| 20260901070358 | 79 | 38 | 0.0 | 0.0 | 0.00 | 0.00 | 0.00 | 12 | 1014.5 |
| 20260901070256 | 79 | 38 | 0.0 | 0.0 | 0.00 | 0.00 | 0.00 | 13 | 1014.5 |
| 20260901070157 | 79 | 38 | 0.0 | 0.0 | 0.00 | 0.00 | 0.00 | 13 | 1014.6 |
| 20260901065958 | 79 | 38 | 0.0 | 0.0 | 0.00 | 0.00 | 0.00 | 12 | 1014.6 |
| 20260901065856 | 79 | 38 | 0.0 | 0.0 | 0.00 | 0.00 | 0.00 | 11 | 1014.6 |
| 20260901065757 | 79 | 38 | 0.0 | 0.0 | 0.00 | 0.00 | 0.00 | 11 | 1014.6 |
| 20260901065656 | 79 | 38 | 0.0 | 0.0 | 0.00 | 0.00 | 0.00 | 10 | 1014.6 |
| 20260901065557 | 79 | 38 | 0.0 | 0.0 | 0.00 | 0.00 | 0.00 | 10 | 1014.6 |
| 20260901065456 | 79 | 38 | 0.0 | 0.0 | 0.00 | 0.00 | 0.00 | 9 | 1014.6 |
| 20260901065357 | 79 | 38 | 0.0 | 0.0 | 0.00 | 0.00 | 0.00 | 11 | 1014.5 |
| 20260901065257 | 79 | 38 | 0.0 | 0.0 | 0.00 | 0.00 | 0.00 | 13 | 1014.6 |
| 20260901065156 | 79 | 38 | 0.0 | 0.0 | 0.00 | 0.00 | 0.00 | 14 | 1014.5 |
| 20260901065056 | 79 | 38 | 0.0 | 0.0 | 0.00 | 0.00 | 0.00 | 15 | 1014.5 |
| 20260901064958 | 79 | 38 | 0.0 | 0.0 | 0.00 | 0.00 | 0.00 | 16 | 1014.6 |
| 20260901064856 | 79 | 38 | 0.0 | 0.0 | 0.00 | 0.00 | 0.00 | 16 | 1014.5 |
| 20260901064757 | 79 | 38 | 0.0 | 0.0 | 0.00 | 0.00 | 0.00 | 15 | 1014.5 |
| 20260901064656 | 79 | 38 | 0.0 | 0.0 | 0.00 | 0.00 | 0.00 | 15 | 1014.5 |
| 20260901064157 | 79 | 38 | 0.0 | 0.0 | 0.00 | 0.00 | 0.00 | 16 | 1014.5 |
| 20260901064056 | 79 | 38 | 0.0 | 0.0 | 0.00 | 0.00 | 0.00 | 16 | 1014.5 |
| 20260901063958 | 79 | 38 | 0.0 | 0.0 | 0.00 | 0.00 | 0.00 | 16 | 1014.5 |
| 20260901063757 | 79 | 38 | 0.0 | 0.0 | 0.00 | 0.00 | 0.00 | 16 | 1014.6 |
| 20260901063657 | 79 | 38 | 0.0 | 0.0 | 0.00 | 0.00 | 0.00 | 16 | 1014.5 |
| 20260901063558 | 79 | 38 | 0.0 | 0.0 | 0.00 | 0.00 | 0.00 | 17 | 1014.6 |
| 20260901063456 | 79 | 38 | 0.0 | 0.0 | 0.00 | 0.00 | 0.00 | 17 | 1014.5 |
| 20260901063356 | 79 | 38 | 0.0 | 0.0 | 0.00 | 0.00 | 0.00 | 18 | 1014.6 |
| 20260901063255 | 79 | 38 | 0.0 | 0.0 | 0.00 | 0.00 | 0.00 | 19 | 1014.6 |
| 20260901063157 | 79 | 38 | 0.0 | 0.0 | 0.00 | 0.00 | 0.00 | 19 | 1014.6 |
| 20260901063056 | 80 | 38 | 0.0 | 0.0 | 0.00 | 0.00 | 0.00 | 20 | 1014.6 |
| 20260901062958 | 80 | 38 | 0.0 | 0.0 | 0.00 | 0.00 | 0.00 | 20 | 1014.7 |
| 20260901062758 | 80 | 38 | 0.0 | 0.0 | 0.00 | 0.00 | 0.00 | 17 | 1014.6 |
| 20260901062557 | 80 | 38 | 0.0 | 0.0 | 0.00 | 0.00 | 0.00 | 16 | 1014.7 |
| 20260901062456 | 80 | 38 | 0.0 | 0.0 | 0.00 | 0.00 | 0.00 | 17 | 1014.7 |
| 20260901062357 | 80 | 38 | 0.0 | 0.0 | 0.00 | 0.00 | 0.00 | 19 | 1014.7 |
| 20260901062256 | 80 | 38 | 0.0 | 0.0 | 0.00 | 0.00 | 0.00 | 20 | 1014.7 |
| 20260901062157 | 80 | 38 | 0.0 | 0.0 | 0.00 | 0.00 | 0.00 | 19 | 1014.7 |
| 20260901061958 | 80 | 38 | 0.0 | 0.0 | 0.00 | 0.00 | 0.00 | 20 | 1014.7 |
| 20260901061856 | 80 | 38 | 0.0 | 0.0 | 0.00 | 0.00 | 0.00 | 20 | 1014.7 |
| 20260901061757 | 80 | 38 | 0.0 | 0.0 | 0.00 | 0.00 | 0.00 | 20 | 1014.6 |
| 20260901061656 | 80 | 38 | 0.0 | 0.0 | 0.00 | 0.00 | 0.00 | 19 | 1014.6 |
| 20260901061557 | 80 | 38 | 0.0 | 0.0 | 0.00 | 0.00 | 0.00 | 18 | 1014.7 |
| 20260901061456 | 80 | 38 | 0.0 | 0.0 | 0.00 | 0.00 | 0.00 | 19 | 1014.6 |
| 20260901061256 | 80 | 38 | 0.0 | 0.0 | 0.00 | 0.00 | 0.00 | 19 | 1014.7 |
| 20260901061056 | 80 | 38 | 0.0 | 0.0 | 0.00 | 0.00 | 0.00 | 21 | 1014.7 |
| 20260901060958 | 80 | 38 | 0.0 | 0.0 | 0.00 | 0.00 | 0.00 | 22 | 1014.7 |
| 20260901060857 | 80 | 38 | 0.0 | 0.0 | 0.00 | 0.00 | 0.00 | 21 | 1014.7 |
| 20260901060757 | 80 | 38 | 0.0 | 0.0 | 0.00 | 0.00 | 0.00 | 21 | 1014.7 |
| 20260901060656 | 80 | 38 | 0.0 | 0.0 | 0.00 | 0.00 | 0.00 | 22 | 1014.8 |
| 20260901060357 | 80 | 38 | 0.0 | 0.0 | 0.00 | 0.00 | 0.00 | 25 | 1014.7 |
| 20260901060256 | 80 | 38 | 0.0 | 0.0 | 0.00 | 0.00 | 0.00 | 25 | 1014.7 |
| 20260901060157 | 80 | 38 | 0.0 | 0.0 | 0.00 | 0.00 | 0.00 | 24 | 1014.8 |
| 20260901060057 | 80 | 38 | 0.0 | 0.0 | 0.00 | 0.00 | 0.00 | 23 | 1014.7 |
| 20260901060002 | 80 | 38 | 0.0 | 0.0 | 0.00 | 0.00 | 0.00 | 23 | 1014.7 |
| 20260901055857 | 80 | 38 | 0.0 | 0.0 | 0.00 | 0.00 | 0.00 | 24 | 1014.7 |
| 20260901055757 | 80 | 38 | 0.0 | 0.0 | 0.00 | 0.00 | 0.00 | 24 | 1014.7 |
| 20260901055557 | 80 | 38 | 0.0 | 0.0 | 0.00 | 0.00 | 0.00 | 26 | 1014.7 |
| 20260901055457 | 80 | 38 | 0.0 | 0.0 | 0.00 | 0.00 | 0.00 | 27 | 1014.8 |
| 20260901055357 | 80 | 38 | 0.0 | 0.0 | 0.00 | 0.00 | 0.00 | 27 | 1014.8 |
| 20260901055256 | 80 | 38 | 0.0 | 0.0 | 0.00 | 0.00 | 0.00 | 27 | 1014.7 |
| 20260901055157 | 80 | 38 | 0.0 | 0.0 | 0.00 | 0.00 | 0.00 | 28 | 1014.8 |
| 20260901055057 | 80 | 38 | 0.0 | 0.0 | 0.00 | 0.00 | 0.00 | 30 | 1014.8 |
| 20260901054959 | 80 | 38 | 0.0 | 0.0 | 0.00 | 0.00 | 0.00 | 30 | 1014.8 |
| 20260901054856 | 80 | 38 | 0.0 | 0.0 | 0.00 | 0.00 | 0.00 | 29 | 1014.8 |
| 20260901054557 | 80 | 38 | 0.0 | 0.0 | 0.00 | 0.00 | 0.00 | 25 | 1014.8 |
| 20260901054357 | 81 | 38 | 0.0 | 0.0 | 0.00 | 0.00 | 0.00 | 26 | 1014.8 |
| 20260901054256 | 81 | 38 | 0.0 | 0.0 | 0.00 | 0.00 | 0.00 | 26 | 1014.8 |
| 20260901054157 | 81 | 38 | 0.0 | 0.0 | 0.00 | 0.00 | 0.00 | 27 | 1014.8 |
| 20260901054056 | 81 | 38 | 0.0 | 0.0 | 0.00 | 0.00 | 0.00 | 29 | 1014.7 |
| 20260901053757 | 81 | 38 | 0.0 | 0.0 | 0.00 | 0.00 | 0.00 | 31 | 1014.6 |
| 20260901053656 | 81 | 38 | 0.0 | 0.0 | 0.00 | 0.00 | 0.00 | 31 | 1014.6 |
| 20260901053557 | 81 | 38 | 0.0 | 0.0 | 0.00 | 0.00 | 0.00 | 31 | 1014.6 |
| 20260901053457 | 81 | 38 | 0.0 | 0.0 | 0.00 | 0.00 | 0.00 | 31 | 1014.6 |
| 20260901053356 | 81 | 38 | 0.0 | 0.0 | 0.00 | 0.00 | 0.00 | 31 | 1014.6 |
| 20260901053157 | 81 | 38 | 0.0 | 0.0 | 0.00 | 0.00 | 0.00 | 30 | 1014.5 |
| 20260901053056 | 81 | 38 | 0.0 | 0.0 | 0.00 | 0.00 | 0.00 | 32 | 1014.6 |
| 20260901052958 | 81 | 38 | 0.0 | 0.0 | 0.00 | 0.00 | 0.00 | 32 | 1014.6 |
| 20260901052856 | 81 | 38 | 0.0 | 0.0 | 0.00 | 0.00 | 0.00 | 31 | 1014.6 |
| 20260901052757 | 81 | 38 | 0.0 | 0.0 | 0.00 | 0.00 | 0.00 | 31 | 1014.5 |
| 20260901052656 | 81 | 38 | 0.0 | 0.0 | 0.00 | 0.00 | 0.00 | 32 | 1014.6 |
| 20260901052557 | 81 | 38 | 0.0 | 0.0 | 0.00 | 0.00 | 0.00 | 32 | 1014.5 |
| 20260901052358 | 81 | 38 | 0.0 | 0.0 | 0.00 | 0.00 | 0.00 | 34 | 1014.6 |
| 20260901052256 | 81 | 38 | 0.0 | 0.0 | 0.00 | 0.00 | 0.00 | 33 | 1014.6 |
| 20260901052157 | 81 | 38 | 0.0 | 0.0 | 0.00 | 0.00 | 0.00 | 34 | 1014.6 |
| 20260901052056 | 81 | 38 | 0.0 | 0.0 | 0.00 | 0.00 | 0.00 | 36 | 1014.6 |
| 20260901051958 | 81 | 38 | 0.0 | 0.0 | 0.00 | 0.00 | 0.00 | 36 | 1014.6 |
| 20260901051859 | 81 | 38 | 0.0 | 0.0 | 0.00 | 0.00 | 0.00 | 36 | 1014.6 |
| 20260901051757 | 81 | 38 | 0.0 | 0.0 | 0.00 | 0.00 | 0.00 | 35 | 1014.6 |
| 20260901051655 | 81 | 38 | 0.0 | 0.0 | 0.00 | 0.00 | 0.00 | 36 | 1014.6 |
| 20260901051557 | 81 | 38 | 0.0 | 0.0 | 0.00 | 0.00 | 0.00 | 37 | 1014.6 |
| 20260901051459 | 81 | 38 | 0.0 | 0.0 | 0.00 | 0.00 | 0.00 | 36 | 1014.6 |
| 20260901051359 | 81 | 38 | 0.0 | 0.0 | 0.00 | 0.00 | 0.00 | 35 | 1014.6 |
| 20260901051259 | 81 | 38 | 0.0 | 0.0 | 0.00 | 0.00 | 0.00 | 35 | 1014.5 |
| 20260901051157 | 81 | 38 | 0.0 | 0.0 | 0.00 | 0.00 | 0.00 | 35 | 1014.5 |
| 20260901051056 | 81 | 38 | 0.0 | 0.0 | 0.00 | 0.00 | 0.00 | 34 | 1014.5 |
| 20260901050958 | 81 | 38 | 0.0 | 0.0 | 0.00 | 0.00 | 0.00 | 34 | 1014.5 |
| 20260901050856 | 81 | 38 | 0.0 | 0.0 | 0.00 | 0.00 | 0.00 | 35 | 1014.5 |
| 20260901050756 | 82 | 38 | 0.0 | 0.0 | 0.00 | 0.00 | 0.00 | 35 | 1014.5 |
| 20260901050656 | 82 | 38 | 0.0 | 0.0 | 0.00 | 0.00 | 0.00 | 33 | 1014.4 |
| 20260901050559 | 82 | 38 | 0.0 | 0.0 | 0.00 | 0.00 | 0.00 | 34 | 1014.4 |
| 20260901050456 | 82 | 38 | 0.0 | 0.0 | 0.00 | 0.00 | 0.00 | 35 | 1014.5 |
| 20260901050357 | 82 | 38 | 0.0 | 0.0 | 0.00 | 0.00 | 0.00 | 36 | 1014.4 |
| 20260901050256 | 82 | 38 | 0.0 | 0.0 | 0.00 | 0.00 | 0.00 | 36 | 1014.4 |
| 20260901050159 | 82 | 38 | 0.0 | 0.0 | 0.00 | 0.00 | 0.00 | 35 | 1014.4 |
| 20260901050059 | 82 | 38 | 0.0 | 0.0 | 0.00 | 0.00 | 0.00 | 36 | 1014.5 |
| 20260901050005 | 82 | 38 | 0.0 | 0.0 | 0.00 | 0.00 | 0.00 | 37 | 1014.4 |
| 20260901045858 | 82 | 38 | 0.0 | 0.0 | 0.00 | 0.00 | 0.00 | 37 | 1014.4 |
| 20260901045758 | 82 | 38 | 0.0 | 0.0 | 0.00 | 0.00 | 0.00 | 37 | 1014.4 |
| 20260901045658 | 82 | 38 | 0.0 | 0.0 | 0.00 | 0.00 | 0.00 | 38 | 1014.4 |
| 20260901045557 | 82 | 38 | 0.0 | 0.0 | 0.00 | 0.00 | 0.00 | 39 | 1014.3 |
| 20260901045256 | 82 | 38 | 0.0 | 0.0 | 0.00 | 0.00 | 0.00 | 41 | 1014.4 |
| 20260901045157 | 82 | 38 | 0.0 | 0.0 | 0.00 | 0.00 | 0.00 | 40 | 1014.4 |
| 20260901045059 | 82 | 38 | 0.0 | 0.0 | 0.00 | 0.00 | 0.00 | 40 | 1014.4 |
| 20260901044858 | 82 | 38 | 0.0 | 0.0 | 0.00 | 0.00 | 0.00 | 41 | 1014.4 |
| 20260901044556 | 82 | 38 | 0.0 | 0.0 | 0.00 | 0.00 | 0.00 | 42 | 1014.3 |
| 20260901044456 | 82 | 38 | 0.0 | 0.0 | 0.00 | 0.00 | 0.00 | 41 | 1014.4 |
| 20260901044356 | 82 | 38 | 0.0 | 0.0 | 0.00 | 0.00 | 0.00 | 40 | 1014.3 |
| 20260901044258 | 82 | 38 | 0.0 | 0.0 | 0.00 | 0.00 | 0.00 | 42 | 1014.3 |
| 20260901044158 | 82 | 38 | 0.0 | 0.0 | 0.00 | 0.00 | 0.00 | 43 | 1014.4 |
| 20260901043958 | 82 | 38 | 0.0 | 0.0 | 0.00 | 0.00 | 0.00 | 42 | 1014.4 |
| 20260901043858 | 82 | 38 | 0.0 | 0.0 | 0.00 | 0.00 | 0.00 | 43 | 1014.4 |
| 20260901043758 | 82 | 38 | 0.0 | 0.0 | 0.00 | 0.00 | 0.00 | 44 | 1014.4 |
| 20260901043656 | 82 | 38 | 0.0 | 0.0 | 0.00 | 0.00 | 0.00 | 44 | 1014.4 |
| 20260901043556 | 82 | 38 | 0.0 | 0.0 | 0.00 | 0.00 | 0.00 | 44 | 1014.3 |
| 20260901043458 | 82 | 38 | 0.0 | 0.0 | 0.00 | 0.00 | 0.00 | 44 | 1014.3 |
| 20260901043358 | 82 | 38 | 0.0 | 0.0 | 0.00 | 0.00 | 0.00 | 44 | 1014.3 |
| 20260901043258 | 83 | 38 | 0.0 | 0.0 | 0.00 | 0.00 | 0.00 | 44 | 1014.4 |
| 20260901043156 | 83 | 38 | 0.0 | 0.0 | 0.00 | 0.00 | 0.00 | 44 | 1014.4 |
| 20260901043057 | 83 | 38 | 0.0 | 0.0 | 0.00 | 0.00 | 0.00 | 46 | 1014.4 |
| 20260901042959 | 83 | 38 | 0.0 | 0.0 | 0.00 | 0.00 | 0.00 | 46 | 1014.4 |
| 20260901042856 | 83 | 38 | 0.0 | 0.0 | 0.00 | 0.00 | 0.00 | 46 | 1014.4 |
| 20260901042756 | 83 | 38 | 0.0 | 0.0 | 0.00 | 0.00 | 0.00 | 46 | 1014.4 |
| 20260901042656 | 83 | 38 | 0.0 | 0.0 | 0.00 | 0.00 | 0.00 | 45 | 1014.4 |
| 20260901042456 | 83 | 38 | 0.0 | 0.0 | 0.00 | 0.00 | 0.00 | 46 | 1014.4 |
| 20260901042356 | 83 | 38 | 0.0 | 0.0 | 0.00 | 0.00 | 0.00 | 46 | 1014.4 |
| 20260901042256 | 83 | 38 | 0.0 | 0.0 | 0.00 | 0.00 | 0.00 | 45 | 1014.4 |
| 20260901042158 | 83 | 38 | 0.0 | 0.0 | 0.00 | 0.00 | 0.00 | 45 | 1014.4 |
| 20260901042058 | 83 | 38 | 0.0 | 0.0 | 0.00 | 0.00 | 0.00 | 45 | 1014.4 |
| 20260901041958 | 83 | 38 | 0.0 | 0.0 | 0.00 | 0.00 | 0.00 | 45 | 1014.4 |
| 20260901041758 | 83 | 38 | 0.0 | 0.0 | 0.00 | 0.00 | 0.00 | 44 | 1014.4 |
| 20260901041658 | 83 | 38 | 0.0 | 0.0 | 0.00 | 0.00 | 0.00 | 45 | 1014.3 |
| 20260901041556 | 83 | 38 | 0.0 | 0.0 | 0.00 | 0.00 | 0.00 | 46 | 1014.4 |
| 20260901041456 | 83 | 38 | 0.0 | 0.0 | 0.00 | 0.00 | 0.00 | 46 | 1014.3 |
| 20260901041358 | 83 | 38 | 0.0 | 0.0 | 0.00 | 0.00 | 0.00 | 46 | 1014.3 |
| 20260901041155 | 83 | 38 | 0.0 | 0.0 | 0.00 | 0.00 | 0.00 | 48 | 1014.4 |
| 20260901041056 | 83 | 38 | 0.0 | 0.0 | 0.00 | 0.00 | 0.00 | 48 | 1014.4 |
| 20260901041000 | 83 | 38 | 0.0 | 0.0 | 0.00 | 0.00 | 0.00 | 48 | 1014.4 |
| 20260901040559 | 83 | 38 | 0.0 | 0.0 | 0.00 | 0.00 | 0.00 | 47 | 1014.4 |
| 20260901040459 | 83 | 38 | 0.0 | 0.0 | 0.00 | 0.00 | 0.00 | 48 | 1014.4 |
| 20260901040356 | 83 | 38 | 0.0 | 0.0 | 0.00 | 0.00 | 0.00 | 48 | 1014.4 |
| 20260901040256 | 83 | 38 | 0.0 | 0.0 | 0.00 | 0.00 | 0.00 | 48 | 1014.4 |
| 20260901040057 | 83 | 38 | 0.0 | 0.0 | 0.00 | 0.00 | 0.00 | 47 | 1014.3 |
| 20260901035959 | 83 | 38 | 0.0 | 0.0 | 0.00 | 0.00 | 0.00 | 47 | 1014.4 |
| 20260901035854 | 83 | 38 | 0.0 | 0.0 | 0.00 | 0.00 | 0.00 | 47 | 1014.4 |
| 20260901035757 | 83 | 38 | 0.0 | 0.0 | 0.00 | 0.00 | 0.00 | 47 | 1014.4 |
| 20260901035555 | 83 | 38 | 0.0 | 0.0 | 0.00 | 0.00 | 0.00 | 47 | 1014.4 |
| 20260901035357 | 83 | 38 | 0.0 | 0.0 | 0.00 | 0.00 | 0.00 | 46 | 1014.4 |
| 20260901035257 | 83 | 38 | 0.0 | 0.0 | 0.00 | 0.00 | 0.00 | 47 | 1014.4 |
| 20260901035155 | 84 | 38 | 0.0 | 0.0 | 0.00 | 0.00 | 0.00 | 47 | 1014.4 |
| 20260901034857 | 84 | 38 | 0.0 | 0.0 | 0.00 | 0.00 | 0.00 | 48 | 1014.5 |
| 20260901034658 | 84 | 38 | 0.0 | 0.0 | 0.00 | 0.00 | 0.00 | 47 | 1014.4 |
| 20260901034557 | 84 | 38 | 0.0 | 0.0 | 0.00 | 0.00 | 0.00 | 47 | 1014.4 |
| 20260901034357 | 84 | 38 | 0.0 | 0.0 | 0.00 | 0.00 | 0.00 | 49 | 1014.4 |
| 20260901034255 | 84 | 38 | 0.0 | 0.0 | 0.00 | 0.00 | 0.00 | 48 | 1014.4 |
| 20260901033957 | 84 | 38 | 0.0 | 0.0 | 0.00 | 0.00 | 0.00 | 49 | 1014.4 |
| 20260901033855 | 84 | 38 | 0.0 | 0.0 | 0.00 | 0.00 | 0.00 | 50 | 1014.4 |
| 20260901033758 | 84 | 38 | 0.0 | 0.0 | 0.00 | 0.00 | 0.00 | 50 | 1014.4 |
| 20260901033657 | 84 | 38 | 0.0 | 0.0 | 0.00 | 0.00 | 0.00 | 50 | 1014.4 |
| 20260901033556 | 84 | 38 | 0.0 | 0.0 | 0.00 | 0.00 | 0.00 | 50 | 1014.4 |
| 20260901033455 | 84 | 38 | 0.0 | 1.0 | 0.00 | 0.00 | 0.00 | 50 | 1014.4 |
| 20260901033357 | 84 | 38 | 0.0 | 1.0 | 0.00 | 0.00 | 0.00 | 50 | 1014.4 |
| 20260901033257 | 84 | 38 | 0.0 | 1.0 | 0.00 | 0.00 | 0.00 | 50 | 1014.3 |
| 20260901033155 | 84 | 38 | 0.0 | 1.0 | 0.00 | 0.00 | 0.00 | 50 | 1014.3 |
| 20260901033055 | 84 | 38 | 0.0 | 1.0 | 0.00 | 0.00 | 0.00 | 51 | 1014.3 |
| 20260901032958 | 84 | 38 | 0.0 | 1.0 | 0.00 | 0.00 | 0.00 | 50 | 1014.3 |
| 20260901032857 | 84 | 38 | 0.0 | 1.0 | 0.00 | 0.00 | 0.00 | 51 | 1014.3 |
| 20260901032755 | 84 | 38 | 0.0 | 1.0 | 0.00 | 0.00 | 0.00 | 51 | 1014.3 |
| 20260901032655 | 84 | 38 | 0.0 | 1.0 | 0.00 | 0.00 | 0.00 | 51 | 1014.2 |
| 20260901032557 | 84 | 38 | 0.0 | 0.0 | 0.00 | 0.00 | 0.00 | 51 | 1014.3 |
| 20260901032457 | 84 | 38 | 0.0 | 0.0 | 0.00 | 0.00 | 0.00 | 52 | 1014.2 |
| 20260901032357 | 84 | 38 | 0.0 | 1.0 | 0.00 | 0.00 | 0.00 | 52 | 1014.3 |
| 20260901032254 | 84 | 38 | 0.0 | 1.0 | 0.00 | 0.00 | 0.00 | 52 | 1014.2 |
| 20260901032057 | 84 | 38 | 0.0 | 1.0 | 0.00 | 0.00 | 0.00 | 52 | 1014.2 |
| 20260901031959 | 84 | 38 | 0.0 | 1.0 | 0.00 | 0.00 | 0.00 | 52 | 1014.2 |
| 20260901031855 | 84 | 38 | 0.0 | 1.0 | 0.00 | 0.00 | 0.00 | 51 | 1014.2 |
| 20260901031755 | 84 | 38 | 0.0 | 1.0 | 0.00 | 0.00 | 0.00 | 52 | 1014.2 |
| 20260901031657 | 84 | 38 | 0.0 | 1.0 | 0.00 | 0.00 | 0.00 | 52 | 1014.2 |
| 20260901031557 | 84 | 38 | 0.0 | 1.0 | 0.00 | 0.00 | 0.00 | 52 | 1014.2 |
| 20260901031355 | 84 | 38 | 0.0 | 0.0 | 0.00 | 0.00 | 0.00 | 54 | 1014.2 |
| 20260901031257 | 84 | 38 | 0.0 | 0.0 | 0.00 | 0.00 | 0.00 | 54 | 1014.2 |
| 20260901031055 | 84 | 38 | 0.0 | 0.0 | 0.00 | 0.00 | 0.00 | 54 | 1014.1 |
| 20260901030959 | 84 | 38 | 0.0 | 0.0 | 0.00 | 0.00 | 0.00 | 55 | 1014.1 |
| 20260901030857 | 84 | 38 | 0.0 | 0.0 | 0.00 | 0.00 | 0.00 | 55 | 1014.1 |
| 20260901030656 | 84 | 38 | 0.0 | 0.0 | 0.00 | 0.00 | 0.00 | 56 | 1014.1 |
| 20260901030556 | 84 | 38 | 0.0 | 0.0 | 0.00 | 0.00 | 0.00 | 55 | 1014.1 |
| 20260901030458 | 84 | 38 | 0.0 | 0.0 | 0.00 | 0.00 | 0.00 | 55 | 1014.1 |
| 20260901030357 | 84 | 38 | 0.0 | 0.0 | 0.00 | 0.00 | 0.00 | 55 | 1014.1 |
| 20260901030255 | 84 | 38 | 0.0 | 0.0 | 0.00 | 0.00 | 0.00 | 55 | 1014.0 |
| 20260901030155 | 84 | 38 | 0.0 | 0.0 | 0.00 | 0.00 | 0.00 | 55 | 1014.0 |
| 20260901030057 | 84 | 38 | 0.0 | 0.0 | 0.00 | 0.00 | 0.00 | 56 | 1014.0 |
| 20260901030002 | 84 | 38 | 0.0 | 0.0 | 0.00 | 0.00 | 0.00 | 56 | 1014.0 |
| 20260901025855 | 84 | 38 | 0.0 | 0.0 | 0.00 | 0.00 | 0.00 | 57 | 1013.9 |
| 20260901025755 | 84 | 38 | 0.0 | 0.0 | 0.00 | 0.00 | 0.00 | 57 | 1013.9 |
| 20260901025656 | 84 | 38 | 0.0 | 0.0 | 0.00 | 0.00 | 0.00 | 57 | 1013.8 |
| 20260901025557 | 84 | 38 | 0.0 | 0.0 | 0.00 | 0.00 | 0.00 | 57 | 1013.8 |
| 20260901025457 | 84 | 38 | 0.0 | 0.0 | 0.00 | 0.00 | 0.00 | 56 | 1013.8 |
| 20260901025357 | 84 | 38 | 0.0 | 0.0 | 0.00 | 0.00 | 0.00 | 57 | 1013.7 |
| 20260901025257 | 84 | 38 | 0.0 | 0.0 | 0.00 | 0.00 | 0.00 | 56 | 1013.7 |
| 20260901025054 | 84 | 38 | 0.0 | 0.0 | 0.00 | 0.00 | 0.00 | 58 | 1013.7 |
| 20260901024956 | 84 | 38 | 0.0 | 0.0 | 0.00 | 0.00 | 0.00 | 58 | 1013.7 |
| 20260901024856 | 84 | 38 | 0.0 | 0.0 | 0.00 | 0.00 | 0.00 | 58 | 1013.7 |
| 20260901024655 | 84 | 38 | 0.0 | 0.0 | 0.00 | 0.00 | 0.00 | 59 | 1013.7 |
| 20260901024556 | 84 | 38 | 0.0 | 0.0 | 0.00 | 0.00 | 0.00 | 59 | 1013.6 |
| 20260901024457 | 84 | 38 | 0.0 | 0.0 | 0.00 | 0.00 | 0.00 | 59 | 1013.6 |
| 20260901024357 | 84 | 38 | 0.0 | 0.0 | 0.00 | 0.00 | 0.00 | 59 | 1013.5 |
| 20260901024158 | 85 | 38 | 0.0 | 0.0 | 0.00 | 0.00 | 0.00 | 60 | 1013.6 |
| 20260901024055 | 85 | 38 | 0.0 | 0.0 | 0.00 | 0.00 | 0.00 | 60 | 1013.6 |
| 20260901023958 | 85 | 38 | 0.0 | 0.0 | 0.00 | 0.00 | 0.00 | 60 | 1013.6 |
| 20260901023857 | 85 | 38 | 0.0 | 0.0 | 0.00 | 0.00 | 0.00 | 60 | 1013.6 |
| 20260901023755 | 85 | 38 | 0.0 | 0.0 | 0.00 | 0.00 | 0.00 | 61 | 1013.6 |
| 20260901023557 | 85 | 38 | 0.0 | 0.0 | 0.00 | 0.00 | 0.00 | 61 | 1013.5 |
| 20260901023457 | 85 | 38 | 0.0 | 0.0 | 0.00 | 0.00 | 0.00 | 61 | 1013.6 |
| 20260901023355 | 85 | 38 | 0.0 | 0.0 | 0.00 | 0.00 | 0.00 | 61 | 1013.5 |
| 20260901023255 | 85 | 38 | 0.0 | 0.0 | 0.00 | 0.00 | 0.00 | 61 | 1013.5 |
| 20260901023157 | 85 | 38 | 0.0 | 0.0 | 0.00 | 0.00 | 0.00 | 61 | 1013.5 |
| 20260901023057 | 85 | 38 | 0.0 | 0.0 | 0.00 | 0.00 | 0.00 | 61 | 1013.4 |
| 20260901022855 | 85 | 38 | 0.0 | 0.0 | 0.00 | 0.00 | 0.00 | 61 | 1013.4 |
| 20260901022757 | 85 | 38 | 0.0 | 0.0 | 0.00 | 0.00 | 0.00 | 61 | 1013.4 |
| 20260901022657 | 85 | 38 | 0.0 | 0.0 | 0.00 | 0.00 | 0.00 | 61 | 1013.4 |
| 20260901022555 | 85 | 38 | 0.0 | 0.0 | 0.00 | 0.00 | 0.00 | 61 | 1013.4 |
| 20260901022455 | 85 | 38 | 0.0 | 0.0 | 0.00 | 0.00 | 0.00 | 61 | 1013.4 |
| 20260901022357 | 85 | 38 | 0.0 | 0.0 | 0.00 | 0.00 | 0.00 | 61 | 1013.4 |
| 20260901022256 | 85 | 38 | 0.0 | 0.0 | 0.00 | 0.00 | 0.00 | 62 | 1013.4 |
| 20260901022155 | 85 | 38 | 0.0 | 0.0 | 0.00 | 0.00 | 0.00 | 62 | 1013.4 |
| 20260901022054 | 85 | 38 | 0.0 | 0.0 | 0.00 | 0.00 | 0.00 | 62 | 1013.4 |
| 20260901021958 | 85 | 38 | 0.0 | 0.0 | 0.00 | 0.00 | 0.00 | 62 | 1013.4 |
| 20260901021857 | 85 | 38 | 0.0 | 0.0 | 0.00 | 0.00 | 0.00 | 62 | 1013.3 |
| 20260901021756 | 85 | 38 | 0.0 | 0.0 | 0.00 | 0.00 | 0.00 | 62 | 1013.3 |
| 20260901021654 | 85 | 38 | 0.0 | 0.0 | 0.00 | 0.00 | 0.00 | 62 | 1013.3 |
| 20260901021557 | 85 | 38 | 0.0 | 0.0 | 0.00 | 0.00 | 0.00 | 62 | 1013.3 |
| 20260901021457 | 85 | 38 | 0.0 | 0.0 | 0.00 | 0.00 | 0.00 | 62 | 1013.3 |
| 20260901021254 | 85 | 38 | 0.0 | 0.0 | 0.00 | 0.00 | 0.00 | 63 | 1013.2 |
| 20260901021155 | 85 | 38 | 0.0 | 0.0 | 0.00 | 0.00 | 0.00 | 63 | 1013.2 |
| 20260901021056 | 85 | 38 | 0.0 | 0.0 | 0.00 | 0.00 | 0.00 | 63 | 1013.2 |
| 20260901020956 | 85 | 38 | 0.0 | 0.0 | 0.00 | 0.00 | 0.00 | 63 | 1013.1 |
| 20260901020855 | 85 | 38 | 0.0 | 0.0 | 0.00 | 0.00 | 0.00 | 63 | 1013.1 |
| 20260901020757 | 85 | 38 | 0.0 | 0.0 | 0.00 | 0.00 | 0.00 | 63 | 1013.2 |
| 20260901020657 | 85 | 38 | 0.0 | 0.0 | 0.00 | 0.00 | 0.00 | 63 | 1013.2 |
| 20260901020556 | 85 | 38 | 0.0 | 0.0 | 0.00 | 0.00 | 0.00 | 63 | 1013.1 |
| 20260901020455 | 85 | 38 | 0.0 | 0.0 | 0.00 | 0.00 | 0.00 | 63 | 1013.1 |
| 20260901020356 | 85 | 38 | 0.0 | 0.0 | 0.00 | 0.00 | 0.00 | 63 | 1013.1 |
| 20260901020159 | 85 | 38 | 0.0 | 0.0 | 0.00 | 0.00 | 0.00 | 63 | 1013.1 |
| 20260901020055 | 85 | 38 | 0.0 | 0.0 | 0.00 | 0.00 | 0.00 | 64 | 1013.1 |
| 20260901015957 | 85 | 38 | 0.0 | 0.0 | 0.00 | 0.00 | 0.00 | 64 | 1013.1 |
| 20260901015857 | 86 | 38 | 0.0 | 0.0 | 0.00 | 0.00 | 0.00 | 64 | 1013.1 |
| 20260901015758 | 86 | 38 | 0.0 | 0.0 | 0.00 | 0.00 | 0.00 | 64 | 1013.1 |
| 20260901015655 | 86 | 38 | 0.0 | 0.0 | 0.00 | 0.00 | 0.00 | 64 | 1013.1 |
| 20260901015558 | 86 | 38 | 0.0 | 0.0 | 0.00 | 0.00 | 0.00 | 64 | 1013.1 |
| 20260901015358 | 86 | 38 | 0.0 | 0.0 | 0.00 | 0.00 | 0.00 | 64 | 1013.1 |
| 20260901015255 | 86 | 38 | 0.0 | 0.0 | 0.00 | 0.00 | 0.00 | 64 | 1013.1 |
| 20260901015156 | 86 | 38 | 0.0 | 0.0 | 0.00 | 0.00 | 0.00 | 64 | 1013.1 |
| 20260901015057 | 86 | 38 | 0.0 | 0.0 | 0.00 | 0.00 | 0.00 | 64 | 1013.1 |
| 20260901014858 | 86 | 38 | 0.0 | 0.0 | 0.00 | 0.00 | 0.00 | 64 | 1013.1 |
| 20260901014756 | 86 | 38 | 0.0 | 0.0 | 0.00 | 0.00 | 0.00 | 64 | 1013.0 |
| 20260901014655 | 86 | 38 | 0.0 | 0.0 | 0.00 | 0.00 | 0.00 | 64 | 1013.1 |
| 20260901014557 | 86 | 38 | 0.0 | 0.0 | 0.00 | 0.00 | 0.00 | 64 | 1013.0 |
| 20260901014458 | 86 | 38 | 0.0 | 0.0 | 0.00 | 0.00 | 0.00 | 64 | 1013.0 |
| 20260901014356 | 86 | 38 | 0.0 | 0.0 | 0.00 | 0.00 | 0.00 | 64 | 1013.1 |
| 20260901014256 | 86 | 38 | 0.0 | 0.0 | 0.00 | 0.00 | 0.00 | 64 | 1013.1 |
| 20260901014158 | 86 | 38 | 0.0 | 0.0 | 0.00 | 0.00 | 0.00 | 64 | 1013.1 |
| 20260901014058 | 86 | 38 | 0.0 | 0.0 | 0.00 | 0.00 | 0.00 | 64 | 1013.1 |
| 20260901013856 | 86 | 38 | 0.0 | 0.0 | 0.00 | 0.00 | 0.00 | 64 | 1013.1 |
| 20260901013759 | 86 | 38 | 0.0 | 0.0 | 0.00 | 0.00 | 0.00 | 64 | 1013.1 |
| 20260901013658 | 86 | 38 | 0.0 | 0.0 | 0.00 | 0.00 | 0.00 | 64 | 1013.1 |
| 20260901013556 | 86 | 38 | 0.0 | 0.0 | 0.00 | 0.00 | 0.00 | 64 | 1013.0 |
| 20260901013456 | 86 | 38 | 0.0 | 0.0 | 0.00 | 0.00 | 0.00 | 64 | 1013.0 |
| 20260901013357 | 87 | 38 | 0.0 | 0.0 | 0.00 | 0.00 | 0.00 | 64 | 1013.1 |
| 20260901013257 | 87 | 38 | 0.0 | 0.0 | 0.00 | 0.00 | 0.00 | 64 | 1013.0 |
| 20260901013158 | 87 | 38 | 0.0 | 0.0 | 0.00 | 0.00 | 0.00 | 64 | 1013.0 |
| 20260901012957 | 87 | 38 | 0.0 | 0.0 | 0.00 | 0.00 | 0.00 | 64 | 1013.0 |
| 20260901012857 | 87 | 38 | 0.0 | 0.0 | 0.00 | 0.00 | 0.00 | 64 | 1013.0 |
| 20260901012758 | 87 | 38 | 0.0 | 0.0 | 0.00 | 0.00 | 0.00 | 64 | 1013.0 |
| 20260901012656 | 87 | 38 | 0.0 | 0.0 | 0.00 | 0.00 | 0.00 | 64 | 1013.0 |
| 20260901012458 | 87 | 38 | 0.0 | 0.0 | 0.00 | 0.00 | 0.00 | 64 | 1013.0 |
| 20260901012358 | 87 | 38 | 0.0 | 0.0 | 0.00 | 0.00 | 0.00 | 64 | 1013.0 |
| 20260901012256 | 87 | 38 | 0.0 | 0.0 | 0.00 | 0.00 | 0.00 | 64 | 1013.0 |
| 20260901012157 | 87 | 38 | 0.0 | 0.0 | 0.00 | 0.00 | 0.00 | 64 | 1013.0 |
| 20260901012058 | 87 | 38 | 0.0 | 1.0 | 0.00 | 0.00 | 0.00 | 64 | 1013.0 |
| 20260901012004 | 87 | 38 | 0.0 | 1.0 | 0.00 | 0.00 | 0.00 | 64 | 1013.0 |
| 20260901011857 | 87 | 38 | 0.0 | 1.0 | 0.00 | 0.00 | 0.00 | 64 | 1013.0 |
| 20260901011656 | 87 | 38 | 0.0 | 1.0 | 0.00 | 0.00 | 0.00 | 64 | 1013.0 |
| 20260901011458 | 87 | 38 | 0.0 | 1.0 | 0.00 | 0.00 | 0.00 | 64 | 1013.0 |
| 20260901011358 | 87 | 38 | 0.0 | 1.0 | 0.00 | 0.00 | 0.00 | 64 | 1013.0 |
| 20260901011257 | 87 | 38 | 0.0 | 1.0 | 0.00 | 0.00 | 0.00 | 64 | 1013.0 |
| 20260901011157 | 87 | 38 | 0.0 | 1.0 | 0.00 | 0.00 | 0.00 | 64 | 1013.0 |
| 20260901011055 | 87 | 38 | 0.0 | 1.0 | 0.00 | 0.00 | 0.00 | 64 | 1013.0 |
| 20260901010959 | 87 | 38 | 0.0 | 1.0 | 0.00 | 0.00 | 0.00 | 64 | 1013.0 |
| 20260901010857 | 88 | 38 | 0.0 | 1.0 | 0.00 | 0.00 | 0.00 | 64 | 1013.0 |
| 20260901010758 | 88 | 38 | 0.0 | 1.0 | 0.00 | 0.00 | 0.00 | 64 | 1013.0 |
| 20260901010656 | 88 | 38 | 0.0 | 1.0 | 0.00 | 0.00 | 0.00 | 64 | 1013.1 |
| 20260901010558 | 88 | 38 | 0.0 | 1.0 | 0.00 | 0.00 | 0.00 | 64 | 1013.0 |
| 20260901010358 | 88 | 38 | 0.0 | 1.0 | 0.00 | 0.00 | 0.00 | 64 | 1013.0 |
| 20260901010257 | 88 | 38 | 0.0 | 1.0 | 0.00 | 0.00 | 0.00 | 64 | 1013.0 |
| 20260901010156 | 88 | 38 | 0.0 | 1.0 | 0.00 | 0.00 | 0.00 | 64 | 1013.1 |
| 20260901005959 | 88 | 38 | 0.0 | 1.0 | 0.00 | 0.00 | 0.00 | 64 | 1013.0 |
| 20260901005856 | 88 | 38 | 0.0 | 1.0 | 0.00 | 0.00 | 0.00 | 64 | 1013.0 |
| 20260901005757 | 88 | 38 | 0.0 | 1.0 | 0.00 | 0.00 | 0.00 | 64 | 1013.0 |
| 20260901005656 | 88 | 38 | 0.0 | 1.0 | 0.00 | 0.00 | 0.00 | 64 | 1013.0 |
| 20260901005457 | 88 | 38 | 0.0 | 1.0 | 0.00 | 0.00 | 0.00 | 64 | 1013.0 |
| 20260901005355 | 88 | 38 | 0.0 | 1.0 | 0.00 | 0.00 | 0.00 | 64 | 1013.0 |
| 20260901005256 | 88 | 38 | 0.0 | 1.0 | 0.00 | 0.00 | 0.00 | 64 | 1013.1 |
| 20260901005157 | 88 | 38 | 0.0 | 1.0 | 0.00 | 0.00 | 0.00 | 64 | 1013.0 |
| 20260901005056 | 88 | 38 | 0.0 | 1.0 | 0.00 | 0.00 | 0.00 | 64 | 1013.1 |
| 20260901004956 | 88 | 38 | 0.0 | 1.0 | 0.00 | 0.00 | 0.00 | 64 | 1013.1 |
| 20260901004855 | 88 | 38 | 0.0 | 1.0 | 0.00 | 0.00 | 0.00 | 64 | 1013.1 |
| 20260901004758 | 88 | 38 | 1.0 | 1.0 | 0.00 | 0.00 | 0.00 | 64 | 1013.1 |
| 20260901004555 | 88 | 38 | 0.0 | 0.0 | 0.00 | 0.00 | 0.00 | 64 | 1013.0 |
| 20260901004256 | 89 | 38 | 0.0 | 1.0 | 0.00 | 0.00 | 0.00 | 64 | 1013.0 |
| 20260901004157 | 89 | 38 | 0.0 | 1.0 | 0.00 | 0.00 | 0.00 | 64 | 1013.0 |
| 20260901003857 | 89 | 38 | 0.0 | 1.0 | 0.00 | 0.00 | 0.00 | 64 | 1013.0 |
| 20260901003655 | 89 | 38 | 0.0 | 1.0 | 0.00 | 0.00 | 0.00 | 64 | 1013.1 |
| 20260901003556 | 89 | 38 | 0.0 | 1.0 | 0.00 | 0.00 | 0.00 | 64 | 1013.1 |
| 20260901003456 | 89 | 38 | 0.0 | 1.0 | 0.00 | 0.00 | 0.00 | 64 | 1013.0 |
| 20260901003357 | 89 | 38 | 0.0 | 1.0 | 0.00 | 0.00 | 0.00 | 64 | 1013.1 |
| 20260901003256 | 89 | 38 | 0.0 | 1.0 | 0.00 | 0.00 | 0.00 | 64 | 1013.1 |
| 20260901003155 | 89 | 38 | 0.0 | 1.0 | 0.00 | 0.00 | 0.00 | 64 | 1013.1 |
| 20260901003056 | 89 | 38 | 0.0 | 1.0 | 0.00 | 0.00 | 0.00 | 63 | 1013.1 |
| 20260901002958 | 89 | 38 | 0.0 | 1.0 | 0.00 | 0.00 | 0.00 | 64 | 1013.1 |
| 20260901002757 | 89 | 38 | 1.0 | 1.0 | 0.00 | 0.00 | 0.00 | 63 | 1013.1 |
| 20260901002654 | 89 | 38 | 0.0 | 1.0 | 0.00 | 0.00 | 0.00 | 63 | 1013.2 |
| 20260901002557 | 89 | 38 | 0.0 | 2.0 | 0.00 | 0.00 | 0.00 | 63 | 1013.1 |
| 20260901002456 | 89 | 38 | 0.0 | 2.0 | 0.00 | 0.00 | 0.00 | 63 | 1013.1 |
| 20260901002357 | 89 | 38 | 0.0 | 2.0 | 0.00 | 0.00 | 0.00 | 63 | 1013.1 |
| 20260901002256 | 89 | 38 | 0.0 | 3.0 | 0.00 | 0.00 | 0.00 | 63 | 1013.1 |
| 20260901002056 | 89 | 38 | 0.0 | 3.0 | 0.00 | 0.00 | 0.00 | 63 | 1013.1 |
| 20260901001857 | 89 | 38 | 0.0 | 3.0 | 0.00 | 0.00 | 0.00 | 63 | 1013.1 |
| 20260901001656 | 89 | 38 | 1.0 | 3.0 | 0.00 | 0.00 | 0.00 | 63 | 1013.0 |
| 20260901001557 | 90 | 38 | 0.0 | 3.0 | 0.00 | 0.00 | 0.00 | 63 | 1013.0 |
| 20260901001457 | 90 | 38 | 0.0 | 3.0 | 0.00 | 0.00 | 0.00 | 62 | 1013.0 |
| 20260901001357 | 90 | 38 | 0.0 | 1.0 | 0.00 | 0.00 | 0.00 | 62 | 1013.0 |
| 20260901001256 | 90 | 38 | 0.0 | 1.0 | 0.00 | 0.00 | 0.00 | 62 | 1013.0 |
| 20260901001155 | 90 | 38 | 0.0 | 1.0 | 0.00 | 0.00 | 0.00 | 62 | 1013.0 |
| 20260901001054 | 90 | 38 | 0.0 | 1.0 | 0.00 | 0.00 | 0.00 | 62 | 1013.1 |
| 20260901000958 | 90 | 38 | 0.0 | 1.0 | 0.00 | 0.00 | 0.00 | 62 | 1013.1 |
| 20260901000856 | 90 | 38 | 0.0 | 1.0 | 0.00 | 0.00 | 0.00 | 62 | 1013.1 |
| 20260901000757 | 90 | 38 | 0.0 | 1.0 | 0.00 | 0.00 | 0.00 | 62 | 1013.0 |
| 20260901000654 | 90 | 38 | 0.0 | 1.0 | 0.00 | 0.00 | 0.00 | 62 | 1013.0 |
| 20260901000557 | 90 | 38 | 0.0 | 1.0 | 0.00 | 0.00 | 0.00 | 62 | 1013.1 |
| 20260901000455 | 90 | 38 | 0.0 | 2.0 | 0.00 | 0.00 | 0.00 | 62 | 1013.1 |
| 20260901000358 | 90 | 38 | 0.0 | 2.0 | 0.00 | 0.00 | 0.00 | 62 | 1013.0 |
| 20260901000255 | 90 | 38 | 0.0 | 2.0 | 0.00 | 0.00 | 0.00 | 62 | 1013.0 |
| 20260901000158 | 90 | 38 | 0.0 | 2.0 | 0.00 | 0.00 | 0.00 | 62 | 1013.0 |
| 20260901000056 | 90 | 38 | 0.0 | 2.0 | 0.00 | 0.00 | 0.00 | 62 | 1013.0 |
| 20260901000002 | 90 | 38 | 0.0 | 2.0 | 0.00 | 0.00 | 0.00 | 62 | 1013.0 |
| 20260831235855 | 90 | 38 | 0.0 | 2.0 | 0.00 | 0.00 | 0.00 | 61 | 1013.0 |
| 20260831235756 | 90 | 38 | 0.0 | 2.0 | 0.00 | 0.00 | 0.00 | 61 | 1013.0 |
| 20260831235657 | 90 | 38 | 0.0 | 2.0 | 0.00 | 0.00 | 0.00 | 61 | 1013.0 |
| 20260831235558 | 90 | 38 | 0.0 | 2.0 | 0.00 | 0.00 | 0.00 | 61 | 1013.0 |
| 20260831235355 | 90 | 38 | 0.0 | 2.0 | 0.00 | 0.00 | 0.00 | 61 | 1013.0 |
| 20260831235255 | 90 | 38 | 0.0 | 2.0 | 0.00 | 0.00 | 0.00 | 61 | 1013.0 |
| 20260831235156 | 90 | 38 | 1.0 | 2.0 | 0.00 | 0.00 | 0.00 | 61 | 1013.0 |
| 20260831235057 | 90 | 38 | 0.0 | 2.0 | 0.00 | 0.00 | 0.00 | 61 | 1013.0 |
| 20260831234958 | 90 | 38 | 0.0 | 2.0 | 0.00 | 0.00 | 0.00 | 61 | 1013.0 |
| 20260831234855 | 90 | 38 | 0.0 | 2.0 | 0.00 | 0.00 | 0.00 | 61 | 1013.0 |
| 20260831234758 | 90 | 38 | 0.0 | 2.0 | 0.00 | 0.00 | 0.00 | 61 | 1013.0 |
| 20260831234655 | 90 | 38 | 0.0 | 2.0 | 0.00 | 0.00 | 0.00 | 61 | 1013.0 |
| 20260831234558 | 91 | 38 | 0.0 | 2.0 | 0.00 | 0.00 | 0.00 | 61 | 1013.0 |
| 20260831234456 | 91 | 38 | 0.0 | 2.0 | 0.00 | 0.00 | 0.00 | 61 | 1013.0 |
| 20260831234358 | 91 | 38 | 0.0 | 2.0 | 0.00 | 0.00 | 0.00 | 61 | 1013.1 |
| 20260831234257 | 91 | 32 | 0.0 | 1.0 | 0.00 | 0.00 | 0.00 | 61 | 1013.1 |
| 20260831234156 | 91 | 32 | 0.0 | 1.0 | 0.00 | 0.00 | 0.00 | 61 | 1013.0 |
| 20260831234056 | 91 | 32 | 1.0 | 1.0 | 0.00 | 0.00 | 0.00 | 61 | 1013.0 |
| 20260831233959 | 91 | 32 | 0.0 | 1.0 | 0.00 | 0.00 | 0.00 | 61 | 1013.0 |
| 20260831233857 | 91 | 32 | 0.0 | 1.0 | 0.00 | 0.00 | 0.00 | 61 | 1013.0 |
| 20260831233756 | 91 | 32 | 0.0 | 1.0 | 0.00 | 0.00 | 0.00 | 61 | 1012.9 |
| 20260831233655 | 91 | 32 | 0.0 | 1.0 | 0.00 | 0.00 | 0.00 | 61 | 1012.9 |
| 20260831233558 | 91 | 32 | 0.0 | 1.0 | 0.00 | 0.00 | 0.00 | 61 | 1012.9 |
| 20260831233358 | 91 | 32 | 0.0 | 1.0 | 0.00 | 0.00 | 0.00 | 61 | 1013.0 |
| 20260831233256 | 91 | 32 | 0.0 | 1.0 | 0.00 | 0.00 | 0.00 | 61 | 1012.9 |
| 20260831233156 | 91 | 32 | 0.0 | 1.0 | 0.00 | 0.00 | 0.00 | 61 | 1012.9 |
| 20260831233057 | 91 | 32 | 0.0 | 2.0 | 0.00 | 0.00 | 0.00 | 61 | 1012.9 |
| 20260831232855 | 91 | 31 | 0.0 | 2.0 | 0.00 | 0.00 | 0.00 | 61 | 1012.8 |
| 20260831232756 | 91 | 31 | 0.0 | 2.0 | 0.00 | 0.00 | 0.00 | 61 | 1012.8 |
| 20260831232657 | 91 | 31 | 0.0 | 2.0 | 0.00 | 0.00 | 0.00 | 61 | 1012.8 |
| 20260831232558 | 91 | 31 | 0.0 | 2.0 | 0.00 | 0.00 | 0.00 | 61 | 1012.9 |
| 20260831232456 | 91 | 31 | 0.0 | 2.0 | 0.00 | 0.00 | 0.00 | 61 | 1012.9 |
| 20260831232356 | 91 | 31 | 0.0 | 2.0 | 0.00 | 0.00 | 0.00 | 61 | 1012.9 |
| 20260831232257 | 91 | 31 | 0.0 | 2.0 | 0.00 | 0.00 | 0.00 | 61 | 1012.9 |
| 20260831232158 | 91 | 31 | 1.0 | 2.0 | 0.00 | 0.00 | 0.00 | 61 | 1012.9 |
| 20260831232056 | 91 | 31 | 0.0 | 2.0 | 0.00 | 0.00 | 0.00 | 61 | 1012.9 |
| 20260831231857 | 91 | 31 | 0.0 | 2.0 | 0.00 | 0.00 | 0.00 | 61 | 1012.9 |
| 20260831231758 | 91 | 31 | 0.0 | 2.0 | 0.00 | 0.00 | 0.00 | 61 | 1012.9 |
| 20260831231656 | 91 | 32 | 0.0 | 2.0 | 0.00 | 0.00 | 0.00 | 61 | 1012.9 |
| 20260831231559 | 91 | 32 | 0.0 | 2.0 | 0.00 | 0.00 | 0.00 | 61 | 1012.9 |
| 20260831231457 | 91 | 32 | 0.0 | 2.0 | 0.00 | 0.00 | 0.00 | 61 | 1012.9 |
| 20260831231358 | 91 | 32 | 0.0 | 2.0 | 0.00 | 0.00 | 0.00 | 61 | 1012.8 |
| 20260831231257 | 91 | 32 | 0.0 | 2.0 | 0.00 | 0.00 | 0.00 | 61 | 1012.9 |
| 20260831231156 | 91 | 32 | 0.0 | 2.0 | 0.00 | 0.00 | 0.00 | 61 | 1012.9 |
| 20260831230959 | 91 | 32 | 0.0 | 2.0 | 0.00 | 0.00 | 0.00 | 61 | 1012.8 |
| 20260831230856 | 91 | 32 | 0.0 | 2.0 | 0.00 | 0.00 | 0.00 | 61 | 1012.8 |
| 20260831230756 | 91 | 32 | 0.0 | 2.0 | 0.00 | 0.00 | 0.00 | 61 | 1012.9 |
| 20260831230657 | 91 | 32 | 0.0 | 2.0 | 0.00 | 0.00 | 0.00 | 61 | 1012.9 |
| 20260831230557 | 91 | 32 | 0.0 | 2.0 | 0.00 | 0.00 | 0.00 | 61 | 1013.0 |
| 20260831230457 | 91 | 32 | 1.0 | 2.0 | 0.00 | 0.00 | 0.00 | 61 | 1012.9 |
| 20260831230356 | 91 | 32 | 0.0 | 2.0 | 0.00 | 0.00 | 0.00 | 61 | 1012.9 |
| 20260831230257 | 91 | 32 | 0.0 | 2.0 | 0.00 | 0.00 | 0.00 | 61 | 1012.9 |
| 20260831230057 | 91 | 32 | 0.0 | 2.0 | 0.00 | 0.00 | 0.00 | 61 | 1012.9 |
| 20260831225956 | 91 | 32 | 0.0 | 2.0 | 0.00 | 0.00 | 0.00 | 61 | 1012.9 |
| 20260831225857 | 91 | 32 | 0.0 | 2.0 | 0.00 | 0.00 | 0.00 | 61 | 1012.9 |
| 20260831225757 | 91 | 32 | 0.0 | 2.0 | 0.00 | 0.00 | 0.00 | 61 | 1012.9 |
| 20260831225657 | 91 | 32 | 0.0 | 3.0 | 0.00 | 0.00 | 0.00 | 61 | 1012.9 |
| 20260831225457 | 91 | 32 | 0.0 | 3.0 | 0.00 | 0.00 | 0.00 | 61 | 1012.9 |
| 20260831225255 | 91 | 32 | 0.0 | 3.0 | 0.00 | 0.00 | 0.00 | 62 | 1012.9 |
| 20260831225155 | 91 | 32 | 0.0 | 3.0 | 0.00 | 0.00 | 0.00 | 61 | 1012.9 |
| 20260831225057 | 91 | 32 | 0.0 | 3.0 | 0.00 | 0.00 | 0.00 | 61 | 1012.8 |
| 20260831224958 | 91 | 32 | 0.0 | 3.0 | 0.00 | 0.00 | 0.00 | 61 | 1012.8 |
| 20260831224854 | 91 | 32 | 3.0 | 3.0 | 0.00 | 0.00 | 0.00 | 61 | 1012.9 |
| 20260831224755 | 91 | 32 | 0.0 | 2.0 | 0.00 | 0.00 | 0.00 | 62 | 1012.9 |
| 20260831224656 | 91 | 32 | 0.0 | 2.0 | 0.00 | 0.00 | 0.00 | 62 | 1013.0 |
| 20260831224557 | 91 | 32 | 0.0 | 2.0 | 0.00 | 0.00 | 0.00 | 62 | 1012.9 |
| 20260831224454 | 91 | 32 | 0.0 | 2.0 | 0.00 | 0.00 | 0.00 | 62 | 1013.0 |
| 20260831224355 | 91 | 32 | 1.0 | 1.0 | 0.00 | 0.00 | 0.00 | 62 | 1013.0 |
| 20260831224255 | 91 | 31 | 0.0 | 1.0 | 0.00 | 0.00 | 0.00 | 62 | 1013.0 |
| 20260831224056 | 91 | 31 | 0.0 | 1.0 | 0.00 | 0.00 | 0.00 | 62 | 1013.0 |
| 20260831223956 | 91 | 31 | 0.0 | 1.0 | 0.00 | 0.00 | 0.00 | 62 | 1013.0 |
| 20260831223853 | 91 | 32 | 1.0 | 1.0 | 0.00 | 0.00 | 0.00 | 62 | 1013.0 |
| 20260831223656 | 91 | 32 | 0.0 | 1.0 | 0.00 | 0.00 | 0.00 | 62 | 1013.0 |
| 20260831223557 | 91 | 31 | 0.0 | 1.0 | 0.00 | 0.00 | 0.00 | 62 | 1013.1 |
| 20260831223256 | 91 | 31 | 0.0 | 2.0 | 0.00 | 0.00 | 0.00 | 62 | 1013.1 |
| 20260831223155 | 91 | 31 | 0.0 | 2.0 | 0.00 | 0.00 | 0.00 | 62 | 1013.1 |
| 20260831223055 | 91 | 32 | 0.0 | 2.0 | 0.00 | 0.00 | 0.00 | 62 | 1013.1 |
| 20260831222958 | 91 | 32 | 0.0 | 2.0 | 0.00 | 0.00 | 0.00 | 62 | 1013.1 |
| 20260831222857 | 91 | 32 | 0.0 | 2.0 | 0.00 | 0.00 | 0.00 | 61 | 1013.0 |
| 20260831222656 | 91 | 32 | 1.0 | 2.0 | 0.00 | 0.00 | 0.00 | 62 | 1013.0 |
| 20260831222557 | 91 | 32 | 1.0 | 2.0 | 0.00 | 0.00 | 0.00 | 62 | 1013.1 |
| 20260831222457 | 91 | 32 | 0.0 | 2.0 | 0.00 | 0.00 | 0.00 | 62 | 1013.1 |
| 20260831222355 | 91 | 32 | 0.0 | 2.0 | 0.00 | 0.00 | 0.00 | 61 | 1013.1 |
| 20260831222254 | 91 | 32 | 0.0 | 2.0 | 0.00 | 0.00 | 0.00 | 61 | 1013.1 |
| 20260831222157 | 91 | 32 | 2.0 | 2.0 | 0.00 | 0.00 | 0.00 | 61 | 1013.0 |
| 20260831222056 | 91 | 31 | 1.0 | 2.0 | 0.00 | 0.00 | 0.00 | 61 | 1013.1 |
| 20260831221956 | 91 | 31 | 0.0 | 2.0 | 0.00 | 0.00 | 0.00 | 61 | 1013.1 |
| 20260831221854 | 91 | 31 | 0.0 | 2.0 | 0.00 | 0.00 | 0.00 | 61 | 1013.1 |
| 20260831221757 | 91 | 31 | 0.0 | 2.0 | 0.00 | 0.00 | 0.00 | 61 | 1013.1 |
| 20260831221656 | 91 | 31 | 0.0 | 2.0 | 0.00 | 0.00 | 0.00 | 61 | 1013.1 |
| 20260831221455 | 91 | 31 | 0.0 | 2.0 | 0.00 | 0.00 | 0.00 | 61 | 1013.1 |
| 20260831221357 | 91 | 31 | 0.0 | 2.0 | 0.00 | 0.00 | 0.00 | 61 | 1013.1 |
| 20260831221256 | 91 | 31 | 0.0 | 2.0 | 0.00 | 0.00 | 0.00 | 61 | 1013.1 |
| 20260831221155 | 91 | 31 | 0.0 | 1.0 | 0.00 | 0.00 | 0.00 | 61 | 1013.1 |
| 20260831221055 | 91 | 31 | 0.0 | 1.0 | 0.00 | 0.00 | 0.00 | 61 | 1013.1 |
| 20260831220957 | 91 | 31 | 0.0 | 1.0 | 0.00 | 0.00 | 0.00 | 61 | 1013.1 |
| 20260831220856 | 91 | 31 | 0.0 | 1.0 | 0.00 | 0.00 | 0.00 | 61 | 1013.1 |
| 20260831220757 | 91 | 31 | 1.0 | 1.0 | 0.00 | 0.00 | 0.00 | 61 | 1013.2 |
| 20260831220654 | 91 | 31 | 0.0 | 1.0 | 0.00 | 0.00 | 0.00 | 61 | 1013.2 |
| 20260831220557 | 91 | 31 | 0.0 | 1.0 | 0.00 | 0.00 | 0.00 | 62 | 1013.2 |
| 20260831220457 | 91 | 31 | 0.0 | 1.0 | 0.00 | 0.00 | 0.00 | 61 | 1013.3 |
| 20260831220355 | 92 | 31 | 0.0 | 0.0 | 0.00 | 0.00 | 0.00 | 61 | 1013.2 |
| 20260831220255 | 92 | 31 | 0.0 | 0.0 | 0.00 | 0.00 | 0.00 | 61 | 1013.2 |
| 20260831220158 | 92 | 31 | 0.0 | 0.0 | 0.00 | 0.00 | 0.00 | 61 | 1013.2 |
| 20260831220056 | 92 | 31 | 0.0 | 0.0 | 0.00 | 0.00 | 0.00 | 61 | 1013.2 |
| 20260831215955 | 92 | 31 | 0.0 | 0.0 | 0.00 | 0.00 | 0.00 | 61 | 1013.2 |
| 20260831215857 | 92 | 31 | 0.0 | 0.0 | 0.00 | 0.00 | 0.00 | 61 | 1013.2 |
| 20260831215755 | 92 | 31 | 0.0 | 0.0 | 0.00 | 0.00 | 0.00 | 61 | 1013.3 |
| 20260831215656 | 92 | 31 | 0.0 | 0.0 | 0.00 | 0.00 | 0.00 | 61 | 1013.3 |
| 20260831215556 | 92 | 31 | 0.0 | 0.0 | 0.00 | 0.00 | 0.00 | 61 | 1013.2 |
| 20260831215355 | 92 | 31 | 0.0 | 1.0 | 0.00 | 0.00 | 0.00 | 61 | 1013.2 |
| 20260831215256 | 92 | 31 | 0.0 | 2.0 | 0.00 | 0.00 | 0.00 | 61 | 1013.2 |
| 20260831215157 | 92 | 31 | 0.0 | 2.0 | 0.00 | 0.00 | 0.00 | 61 | 1013.2 |
| 20260831215054 | 92 | 31 | 0.0 | 2.0 | 0.00 | 0.00 | 0.00 | 60 | 1013.3 |
| 20260831214958 | 92 | 31 | 0.0 | 2.0 | 0.00 | 0.00 | 0.00 | 61 | 1013.3 |
| 20260831214856 | 92 | 31 | 0.0 | 2.0 | 0.00 | 0.00 | 0.00 | 60 | 1013.3 |
| 20260831214756 | 92 | 31 | 0.0 | 2.0 | 0.00 | 0.00 | 0.00 | 60 | 1013.3 |
| 20260831214655 | 92 | 31 | 0.0 | 2.0 | 0.00 | 0.00 | 0.00 | 60 | 1013.4 |
| 20260831214555 | 92 | 31 | 0.0 | 2.0 | 0.00 | 0.00 | 0.00 | 60 | 1013.4 |
| 20260831214456 | 92 | 31 | 0.0 | 2.0 | 0.00 | 0.00 | 0.00 | 60 | 1013.4 |
| 20260831214357 | 92 | 31 | 0.0 | 1.0 | 0.00 | 0.00 | 0.00 | 60 | 1013.5 |
| 20260831214155 | 92 | 31 | 0.0 | 1.0 | 0.00 | 0.00 | 0.00 | 60 | 1013.5 |
| 20260831214056 | 92 | 31 | 0.0 | 1.0 | 0.00 | 0.00 | 0.00 | 60 | 1013.4 |
| 20260831213959 | 92 | 31 | 0.0 | 1.0 | 0.00 | 0.00 | 0.00 | 60 | 1013.5 |
| 20260831213855 | 92 | 31 | 0.0 | 1.0 | 0.00 | 0.00 | 0.00 | 60 | 1013.5 |
| 20260831213557 | 92 | 31 | 0.0 | 1.0 | 0.00 | 0.00 | 0.00 | 60 | 1013.5 |
| 20260831213355 | 92 | 31 | 0.0 | 1.0 | 0.00 | 0.00 | 0.00 | 60 | 1013.5 |
| 20260831213256 | 92 | 31 | 0.0 | 1.0 | 0.00 | 0.00 | 0.00 | 60 | 1013.5 |
| 20260831213156 | 92 | 31 | 0.0 | 1.0 | 0.00 | 0.00 | 0.00 | 60 | 1013.5 |
| 20260831213054 | 92 | 31 | 0.0 | 1.0 | 0.00 | 0.00 | 0.00 | 60 | 1013.6 |
| 20260831212956 | 92 | 31 | 0.0 | 1.0 | 0.00 | 0.00 | 0.00 | 60 | 1013.5 |
| 20260831212856 | 92 | 31 | 0.0 | 1.0 | 0.00 | 0.00 | 0.00 | 60 | 1013.6 |
| 20260831212757 | 92 | 31 | 0.0 | 1.0 | 0.00 | 0.00 | 0.00 | 60 | 1013.6 |
| 20260831212656 | 92 | 31 | 0.0 | 1.0 | 0.00 | 0.00 | 0.00 | 60 | 1013.6 |
| 20260831212555 | 92 | 31 | 0.0 | 1.0 | 0.00 | 0.00 | 0.00 | 60 | 1013.6 |
| 20260831212457 | 92 | 31 | 0.0 | 1.0 | 0.00 | 0.00 | 0.00 | 60 | 1013.5 |
| 20260831212357 | 92 | 31 | 1.0 | 4.0 | 0.00 | 0.00 | 0.00 | 60 | 1013.6 |
| 20260831212256 | 92 | 31 | 0.0 | 4.0 | 0.00 | 0.00 | 0.00 | 60 | 1013.6 |
| 20260831212155 | 92 | 31 | 0.0 | 4.0 | 0.00 | 0.00 | 0.00 | 60 | 1013.6 |
| 20260831212054 | 92 | 31 | 1.0 | 4.0 | 0.00 | 0.00 | 0.00 | 60 | 1013.7 |
| 20260831211958 | 92 | 31 | 0.0 | 4.0 | 0.00 | 0.00 | 0.00 | 60 | 1013.6 |
| 20260831211857 | 92 | 31 | 0.0 | 4.0 | 0.00 | 0.00 | 0.00 | 59 | 1013.7 |
| 20260831211755 | 92 | 31 | 0.0 | 4.0 | 0.00 | 0.00 | 0.00 | 60 | 1013.7 |
| 20260831211456 | 92 | 31 | 0.0 | 4.0 | 0.00 | 0.00 | 0.00 | 59 | 1013.7 |
| 20260831211355 | 92 | 31 | 1.0 | 4.0 | 0.00 | 0.00 | 0.00 | 59 | 1013.7 |
| 20260831211255 | 92 | 31 | 1.0 | 4.0 | 0.00 | 0.00 | 0.00 | 59 | 1013.8 |
| 20260831211157 | 92 | 31 | 0.0 | 4.0 | 0.00 | 0.00 | 0.00 | 59 | 1013.8 |
| 20260831210958 | 92 | 31 | 2.0 | 4.0 | 0.00 | 0.00 | 0.00 | 59 | 1013.8 |
| 20260831210854 | 92 | 31 | 2.0 | 4.0 | 0.00 | 0.00 | 0.00 | 59 | 1013.8 |
| 20260831210757 | 92 | 6 | 2.0 | 3.0 | 0.00 | 0.00 | 0.00 | 59 | 1013.9 |
| 20260831210654 | 92 | 359 | 0.0 | 3.0 | 0.00 | 0.00 | 0.00 | 59 | 1013.8 |
| 20260831210555 | 92 | 360 | 0.0 | 3.0 | 0.00 | 0.00 | 0.00 | 59 | 1013.9 |
| 20260831210456 | 92 | 360 | 0.0 | 3.0 | 0.00 | 0.00 | 0.00 | 59 | 1013.9 |
| 20260831210357 | 92 | 360 | 0.0 | 3.0 | 0.00 | 0.00 | 0.00 | 59 | 1013.9 |
| 20260831210256 | 92 | 360 | 0.0 | 3.0 | 0.00 | 0.00 | 0.00 | 58 | 1013.9 |
| 20260831210155 | 92 | 360 | 0.0 | 3.0 | 0.00 | 0.00 | 0.00 | 59 | 1013.9 |
| 20260831210055 | 92 | 360 | 0.0 | 3.0 | 0.00 | 0.00 | 0.00 | 58 | 1013.9 |
| 20260831210001 | 92 | 360 | 2.0 | 3.0 | 0.00 | 0.00 | 0.00 | 58 | 1013.9 |
| 20260831205857 | 92 | 358 | 0.0 | 2.0 | 0.00 | 0.00 | 0.00 | 58 | 1013.9 |
| 20260831205758 | 92 | 358 | 0.0 | 2.0 | 0.00 | 0.00 | 0.00 | 58 | 1014.0 |
| 20260831205558 | 92 | 358 | 1.0 | 2.0 | 0.00 | 0.00 | 0.00 | 58 | 1014.0 |
| 20260831205457 | 92 | 358 | 1.0 | 2.0 | 0.00 | 0.00 | 0.00 | 58 | 1014.0 |
| 20260831205356 | 92 | 358 | 0.0 | 4.0 | 0.00 | 0.00 | 0.00 | 58 | 1014.1 |
| 20260831205256 | 92 | 358 | 0.0 | 4.0 | 0.00 | 0.00 | 0.00 | 59 | 1014.1 |
| 20260831205156 | 92 | 358 | 0.0 | 4.0 | 0.00 | 0.00 | 0.00 | 59 | 1014.1 |
| 20260831205057 | 92 | 358 | 0.0 | 4.0 | 0.00 | 0.00 | 0.00 | 58 | 1014.1 |
| 20260831204959 | 92 | 358 | 1.0 | 4.0 | 0.00 | 0.00 | 0.00 | 58 | 1014.1 |
| 20260831204857 | 92 | 358 | 0.0 | 4.0 | 0.00 | 0.00 | 0.00 | 58 | 1014.1 |
| 20260831204655 | 92 | 358 | 0.0 | 4.0 | 0.00 | 0.00 | 0.00 | 58 | 1014.2 |
| 20260831204458 | 92 | 358 | 1.0 | 4.0 | 0.00 | 0.00 | 0.00 | 57 | 1014.1 |
| 20260831204155 | 93 | 17 | 4.0 | 4.0 | 0.00 | 0.00 | 0.00 | 57 | 1014.2 |
| 20260831204055 | 93 | 23 | 0.0 | 2.0 | 0.00 | 0.00 | 0.00 | 57 | 1014.2 |
| 20260831203958 | 93 | 23 | 0.0 | 2.0 | 0.00 | 0.00 | 0.00 | 58 | 1014.2 |
| 20260831203758 | 93 | 23 | 0.0 | 4.0 | 0.00 | 0.00 | 0.00 | 58 | 1014.2 |
| 20260831203657 | 93 | 23 | 1.0 | 4.0 | 0.00 | 0.00 | 0.00 | 58 | 1014.2 |
| 20260831203558 | 93 | 23 | 0.0 | 4.0 | 0.00 | 0.00 | 0.00 | 58 | 1014.2 |
| 20260831203458 | 93 | 23 | 0.0 | 4.0 | 0.00 | 0.00 | 0.00 | 58 | 1014.2 |
| 20260831203257 | 93 | 23 | 0.0 | 4.0 | 0.00 | 0.00 | 0.00 | 58 | 1014.2 |
| 20260831203158 | 93 | 23 | 0.0 | 4.0 | 0.00 | 0.00 | 0.00 | 58 | 1014.2 |
| 20260831202957 | 93 | 23 | 1.0 | 4.0 | 0.00 | 0.00 | 0.00 | 58 | 1014.2 |
| 20260831202756 | 93 | 23 | 2.0 | 4.0 | 0.00 | 0.00 | 0.00 | 58 | 1014.2 |
| 20260831202657 | 93 | 27 | 0.0 | 4.0 | 0.00 | 0.00 | 0.00 | 58 | 1014.2 |
| 20260831202557 | 93 | 28 | 0.0 | 4.0 | 0.00 | 0.00 | 0.00 | 58 | 1014.2 |
| 20260831202356 | 93 | 29 | 0.0 | 7.0 | 0.00 | 0.00 | 0.00 | 57 | 1014.3 |
| 20260831202257 | 93 | 28 | 1.0 | 7.0 | 0.00 | 0.00 | 0.00 | 57 | 1014.3 |
| 20260831202158 | 93 | 29 | 1.0 | 7.0 | 0.00 | 0.00 | 0.00 | 57 | 1014.3 |
| 20260831202057 | 93 | 29 | 0.0 | 7.0 | 0.00 | 0.00 | 0.00 | 57 | 1014.3 |
| 20260831201857 | 93 | 5 | 0.0 | 7.0 | 0.00 | 0.00 | 0.00 | 57 | 1014.3 |
| 20260831201756 | 93 | 5 | 0.0 | 7.0 | 0.00 | 0.00 | 0.00 | 57 | 1014.2 |
| 20260831201657 | 93 | 5 | 1.0 | 7.0 | 0.00 | 0.00 | 0.00 | 57 | 1014.3 |
| 20260831201558 | 93 | 7 | 2.0 | 5.0 | 0.00 | 0.00 | 0.00 | 57 | 1014.3 |
| 20260831201457 | 93 | 7 | 1.0 | 5.0 | 0.00 | 0.00 | 0.00 | 57 | 1014.2 |
| 20260831201356 | 94 | 7 | 1.0 | 5.0 | 0.00 | 0.00 | 0.00 | 57 | 1014.2 |
| 20260831201255 | 94 | 7 | 3.0 | 5.0 | 0.00 | 0.00 | 0.00 | 56 | 1014.2 |
| 20260831201055 | 93 | 7 | 1.0 | 5.0 | 0.00 | 0.00 | 0.00 | 56 | 1014.3 |
| 20260831200759 | 93 | 21 | 2.0 | 4.0 | 0.00 | 0.00 | 0.00 | 56 | 1014.2 |
| 20260831200657 | 94 | 21 | 0.0 | 4.0 | 0.00 | 0.00 | 0.00 | 56 | 1014.3 |
| 20260831200556 | 94 | 21 | 1.0 | 4.0 | 0.00 | 0.00 | 0.00 | 56 | 1014.3 |
| 20260831200459 | 94 | 21 | 0.0 | 4.0 | 0.00 | 0.00 | 0.00 | 57 | 1014.4 |
| 20260831200357 | 93 | 35 | 0.0 | 4.0 | 0.00 | 0.00 | 0.00 | 56 | 1014.4 |
| 20260831200257 | 93 | 35 | 1.0 | 4.0 | 0.00 | 0.00 | 0.00 | 56 | 1014.5 |
| 20260831200157 | 93 | 34 | 4.0 | 4.0 | 0.00 | 0.00 | 0.00 | 56 | 1014.5 |
| 20260831200000 | 93 | 34 | 0.0 | 4.0 | 0.00 | 0.00 | 0.00 | 57 | 1014.5 |
| 20260831195857 | 93 | 34 | 2.0 | 4.0 | 0.00 | 0.00 | 0.00 | 57 | 1014.5 |
| 20260831195757 | 93 | 34 | 0.0 | 4.0 | 0.00 | 0.00 | 0.00 | 57 | 1014.5 |
| 20260831195657 | 93 | 34 | 0.0 | 4.0 | 0.00 | 0.00 | 0.00 | 57 | 1014.4 |
| 20260831195557 | 93 | 34 | 2.0 | 4.0 | 0.00 | 0.00 | 0.00 | 58 | 1014.4 |
| 20260831195457 | 93 | 33 | 0.0 | 4.0 | 0.00 | 0.00 | 0.00 | 57 | 1014.4 |
| 20260831195357 | 93 | 33 | 0.0 | 4.0 | 0.00 | 0.00 | 0.00 | 58 | 1014.4 |
| 20260831195257 | 93 | 33 | 0.0 | 4.0 | 0.00 | 0.00 | 0.00 | 58 | 1014.5 |
| 20260831195057 | 93 | 31 | 2.0 | 4.0 | 0.00 | 0.00 | 0.00 | 58 | 1014.4 |
| 20260831194959 | 93 | 35 | 0.0 | 4.0 | 0.00 | 0.00 | 0.00 | 59 | 1014.5 |
| 20260831194856 | 93 | 35 | 1.0 | 4.0 | 0.00 | 0.00 | 0.00 | 60 | 1014.5 |
| 20260831194757 | 93 | 35 | 0.0 | 4.0 | 0.00 | 0.00 | 0.00 | 60 | 1014.5 |
| 20260831194656 | 93 | 35 | 0.0 | 4.0 | 0.00 | 0.00 | 0.00 | 60 | 1014.6 |
| 20260831194558 | 93 | 35 | 0.0 | 4.0 | 0.00 | 0.00 | 0.00 | 60 | 1014.6 |
| 20260831194357 | 93 | 35 | 0.0 | 4.0 | 0.00 | 0.00 | 0.00 | 61 | 1014.6 |
| 20260831194158 | 93 | 32 | 0.0 | 4.0 | 0.00 | 0.00 | 0.00 | 61 | 1014.7 |
| 20260831194057 | 93 | 31 | 1.0 | 4.0 | 0.00 | 0.00 | 0.00 | 62 | 1014.7 |
| 20260831193958 | 93 | 31 | 1.0 | 4.0 | 0.00 | 0.00 | 0.00 | 61 | 1014.7 |
| 20260831193857 | 93 | 31 | 2.0 | 4.0 | 0.00 | 0.00 | 0.00 | 62 | 1014.7 |
| 20260831193758 | 93 | 302 | 0.0 | 4.0 | 0.00 | 0.00 | 0.00 | 62 | 1014.7 |
| 20260831193656 | 93 | 20 | 0.0 | 4.0 | 0.00 | 0.00 | 0.00 | 62 | 1014.7 |
| 20260831193457 | 93 | 17 | 0.0 | 4.0 | 0.00 | 0.00 | 0.00 | 62 | 1014.8 |
| 20260831193357 | 93 | 17 | 1.0 | 4.0 | 0.00 | 0.00 | 0.00 | 62 | 1014.8 |
| 20260831193156 | 93 | 20 | 2.0 | 2.0 | 0.00 | 0.00 | 0.00 | 62 | 1014.8 |
| 20260831192959 | 93 | 20 | 2.0 | 3.0 | 0.00 | 0.00 | 0.00 | 62 | 1014.9 |
| 20260831192857 | 93 | 20 | 0.0 | 3.0 | 0.00 | 0.00 | 0.00 | 62 | 1014.8 |
| 20260831192758 | 93 | 20 | 1.0 | 3.0 | 0.00 | 0.00 | 0.00 | 62 | 1014.9 |
| 20260831192557 | 93 | 20 | 1.0 | 3.0 | 0.00 | 0.00 | 0.00 | 62 | 1014.9 |
| 20260831192459 | 93 | 20 | 0.0 | 3.0 | 0.00 | 0.00 | 0.00 | 62 | 1014.9 |
| 20260831192157 | 94 | 19 | 0.0 | 4.0 | 0.00 | 0.00 | 0.00 | 61 | 1015.0 |
| 20260831192055 | 94 | 340 | 1.0 | 4.0 | 0.00 | 0.00 | 0.00 | 61 | 1015.0 |
| 20260831191957 | 94 | 340 | 2.0 | 4.0 | 0.00 | 0.00 | 0.00 | 61 | 1015.0 |
| 20260831191857 | 94 | 49 | 0.0 | 4.0 | 0.00 | 0.00 | 0.00 | 61 | 1015.0 |
| 20260831191758 | 94 | 49 | 0.0 | 4.0 | 0.00 | 0.00 | 0.00 | 61 | 1015.1 |
| 20260831191657 | 94 | 49 | 0.0 | 4.0 | 0.00 | 0.00 | 0.00 | 61 | 1015.0 |
| 20260831191558 | 94 | 49 | 0.0 | 4.0 | 0.00 | 0.00 | 0.00 | 61 | 1015.1 |
| 20260831191457 | 94 | 33 | 1.0 | 3.0 | 0.00 | 0.00 | 0.00 | 61 | 1015.0 |
| 20260831191358 | 94 | 33 | 0.0 | 3.0 | 0.00 | 0.00 | 0.00 | 61 | 1015.0 |
| 20260831191158 | 94 | 29 | 1.0 | 3.0 | 0.00 | 0.00 | 0.00 | 61 | 1015.0 |
| 20260831191055 | 94 | 29 | 1.0 | 3.0 | 0.00 | 0.00 | 0.00 | 61 | 1015.0 |
| 20260831190959 | 94 | 29 | 0.0 | 3.0 | 0.00 | 0.00 | 0.00 | 61 | 1015.0 |
| 20260831190857 | 94 | 29 | 0.0 | 3.0 | 0.00 | 0.00 | 0.00 | 60 | 1015.0 |
| 20260831190756 | 94 | 29 | 0.0 | 3.0 | 0.00 | 0.00 | 0.00 | 60 | 1015.1 |
| 20260831190657 | 94 | 29 | 0.0 | 3.0 | 0.00 | 0.00 | 0.00 | 59 | 1015.0 |
| 20260831190558 | 94 | 19 | 1.0 | 3.0 | 0.00 | 0.00 | 0.00 | 58 | 1014.9 |
| 20260831190457 | 94 | 19 | 2.0 | 3.0 | 0.00 | 0.00 | 0.00 | 58 | 1014.9 |
| 20260831190358 | 94 | 97 | 0.0 | 3.0 | 0.00 | 0.00 | 0.00 | 58 | 1014.9 |
| 20260831190256 | 94 | 97 | 0.0 | 3.0 | 0.00 | 0.00 | 0.00 | 57 | 1014.9 |
| 20260831190057 | 94 | 97 | 0.0 | 3.0 | 0.00 | 0.00 | 0.00 | 57 | 1014.9 |
| 20260831190000 | 94 | 97 | 0.0 | 3.0 | 0.00 | 0.00 | 0.00 | 57 | 1014.9 |
| 20260831185856 | 94 | 97 | 0.0 | 3.0 | 0.00 | 0.00 | 0.00 | 57 | 1014.9 |
| 20260831185757 | 94 | 97 | 0.0 | 4.0 | 0.00 | 0.00 | 0.00 | 57 | 1014.9 |
| 20260831185657 | 94 | 97 | 0.0 | 4.0 | 0.00 | 0.00 | 0.00 | 58 | 1014.9 |
| 20260831185558 | 94 | 97 | 1.0 | 4.0 | 0.00 | 0.00 | 0.00 | 58 | 1014.9 |
| 20260831185458 | 94 | 134 | 1.0 | 4.0 | 0.00 | 0.00 | 0.00 | 58 | 1015.0 |
| 20260831185358 | 94 | 186 | 0.0 | 4.0 | 0.00 | 0.00 | 0.00 | 58 | 1015.0 |
| 20260831185257 | 94 | 186 | 0.0 | 5.0 | 0.00 | 0.00 | 0.00 | 59 | 1014.9 |
| 20260831185057 | 94 | 185 | 0.0 | 5.0 | 0.00 | 0.00 | 0.00 | 59 | 1015.1 |
| 20260831184959 | 93 | 187 | 1.0 | 5.0 | 0.00 | 0.00 | 0.00 | 59 | 1015.2 |
| 20260831184857 | 93 | 52 | 1.0 | 5.0 | 0.00 | 0.00 | 0.00 | 59 | 1015.2 |
| 20260831184657 | 93 | 23 | 0.0 | 5.0 | 0.00 | 0.00 | 0.00 | 59 | 1015.2 |
| 20260831184558 | 93 | 21 | 1.0 | 5.0 | 0.00 | 0.00 | 0.00 | 59 | 1015.2 |
| 20260831184455 | 93 | 21 | 2.0 | 5.0 | 0.00 | 0.00 | 0.00 | 59 | 1015.2 |
| 20260831184257 | 94 | 63 | 0.0 | 3.0 | 0.00 | 0.00 | 0.00 | 59 | 1015.2 |
| 20260831184157 | 94 | 62 | 1.0 | 2.0 | 0.00 | 0.00 | 0.00 | 59 | 1015.2 |
| 20260831184056 | 94 | 63 | 0.0 | 2.0 | 0.00 | 0.00 | 0.00 | 59 | 1015.2 |
| 20260831183959 | 94 | 63 | 0.0 | 3.0 | 0.00 | 0.00 | 0.00 | 59 | 1015.1 |
| 20260831183855 | 94 | 63 | 0.0 | 3.0 | 0.00 | 0.00 | 0.00 | 59 | 1015.2 |
| 20260831183755 | 94 | 63 | 1.0 | 3.0 | 0.00 | 0.00 | 0.00 | 60 | 1015.2 |
| 20260831183656 | 94 | 63 | 0.0 | 3.0 | 0.00 | 0.00 | 0.00 | 59 | 1015.2 |
| 20260831183558 | 94 | 63 | 2.0 | 3.0 | 0.00 | 0.00 | 0.00 | 59 | 1015.3 |
| 20260831183356 | 94 | 65 | 0.0 | 3.0 | 0.00 | 0.00 | 0.00 | 59 | 1015.3 |
| 20260831183156 | 94 | 65 | 3.0 | 3.0 | 0.00 | 0.00 | 0.00 | 59 | 1015.3 |
| 20260831183057 | 94 | 69 | 0.0 | 3.0 | 0.00 | 0.00 | 0.00 | 60 | 1015.3 |
| 20260831182857 | 94 | 69 | 0.0 | 3.0 | 0.00 | 0.00 | 0.00 | 60 | 1015.3 |
| 20260831182758 | 94 | 69 | 0.0 | 3.0 | 0.00 | 0.00 | 0.00 | 60 | 1015.3 |
| 20260831182357 | 94 | 69 | 0.0 | 2.0 | 0.00 | 0.00 | 0.00 | 59 | 1015.3 |
| 20260831182257 | 94 | 70 | 1.0 | 4.0 | 0.00 | 0.00 | 0.00 | 59 | 1015.3 |
| 20260831182156 | 94 | 69 | 1.0 | 4.0 | 0.00 | 0.00 | 0.00 | 60 | 1015.3 |
| 20260831182055 | 94 | 69 | 0.0 | 4.0 | 0.00 | 0.00 | 0.00 | 60 | 1015.3 |
| 20260831181958 | 93 | 69 | 0.0 | 4.0 | 0.00 | 0.00 | 0.00 | 60 | 1015.3 |
| 20260831181857 | 93 | 69 | 0.0 | 4.0 | 0.00 | 0.00 | 0.00 | 60 | 1015.3 |
| 20260831181757 | 93 | 69 | 0.0 | 4.0 | 0.00 | 0.00 | 0.00 | 60 | 1015.4 |
| 20260831181655 | 93 | 69 | 0.0 | 4.0 | 0.00 | 0.00 | 0.00 | 60 | 1015.4 |
| 20260831181456 | 93 | 109 | 0.0 | 2.0 | 0.00 | 0.00 | 0.00 | 60 | 1015.4 |
| 20260831181358 | 93 | 109 | 0.0 | 2.0 | 0.00 | 0.00 | 0.00 | 60 | 1015.4 |
| 20260831181255 | 93 | 109 | 0.0 | 2.0 | 0.00 | 0.00 | 0.00 | 60 | 1015.4 |
| 20260831181156 | 94 | 109 | 0.0 | 2.0 | 0.00 | 0.00 | 0.00 | 59 | 1015.4 |
| 20260831181057 | 94 | 109 | 0.0 | 2.0 | 0.00 | 0.00 | 0.00 | 59 | 1015.5 |
| 20260831180959 | 94 | 109 | 0.0 | 3.0 | 0.00 | 0.00 | 0.00 | 60 | 1015.5 |
| 20260831180855 | 94 | 109 | 1.0 | 3.0 | 0.00 | 0.00 | 0.00 | 60 | 1015.5 |
| 20260831180756 | 94 | 109 | 0.0 | 3.0 | 0.00 | 0.00 | 0.00 | 60 | 1015.5 |
| 20260831180455 | 94 | 109 | 0.0 | 3.0 | 0.00 | 0.00 | 0.00 | 60 | 1015.6 |
| 20260831180157 | 94 | 109 | 0.0 | 4.0 | 0.00 | 0.00 | 0.00 | 59 | 1015.6 |
| 20260831180056 | 94 | 109 | 0.0 | 4.0 | 0.00 | 0.00 | 0.00 | 59 | 1015.7 |
| 20260831180004 | 94 | 109 | 1.0 | 4.0 | 0.00 | 0.00 | 0.00 | 59 | 1015.7 |
| 20260831175857 | 94 | 109 | 0.0 | 4.0 | 0.00 | 0.00 | 0.00 | 59 | 1015.7 |
| 20260831175758 | 94 | 109 | 0.0 | 4.0 | 0.00 | 0.00 | 0.00 | 59 | 1015.7 |
| 20260831175655 | 94 | 109 | 1.0 | 4.0 | 0.00 | 0.00 | 0.00 | 60 | 1015.7 |
| 20260831175556 | 94 | 110 | 0.0 | 4.0 | 0.00 | 0.00 | 0.00 | 60 | 1015.7 |
| 20260831175357 | 94 | 13 | 0.0 | 3.0 | 0.00 | 0.00 | 0.00 | 60 | 1015.7 |
| 20260831175258 | 94 | 13 | 0.0 | 3.0 | 0.00 | 0.00 | 0.00 | 60 | 1015.7 |
| 20260831175156 | 94 | 13 | 1.0 | 3.0 | 0.00 | 0.00 | 0.00 | 60 | 1015.7 |
| 20260831175055 | 94 | 13 | 0.0 | 3.0 | 0.00 | 0.00 | 0.00 | 60 | 1015.7 |
| 20260831174956 | 94 | 13 | 0.0 | 3.0 | 0.00 | 0.00 | 0.00 | 59 | 1015.7 |
| 20260831174857 | 94 | 13 | 2.0 | 3.0 | 0.00 | 0.00 | 0.00 | 59 | 1015.8 |
| 20260831174755 | 94 | 7 | 0.0 | 2.0 | 0.00 | 0.00 | 0.00 | 60 | 1015.7 |
| 20260831174558 | 93 | 7 | 0.0 | 2.0 | 0.00 | 0.00 | 0.00 | 59 | 1015.8 |
| 20260831174455 | 93 | 7 | 0.0 | 3.0 | 0.00 | 0.00 | 0.00 | 59 | 1015.8 |
| 20260831174356 | 93 | 7 | 0.0 | 3.0 | 0.00 | 0.00 | 0.00 | 59 | 1015.7 |
| 20260831174257 | 93 | 7 | 1.0 | 3.0 | 0.00 | 0.00 | 0.00 | 59 | 1015.8 |
| 20260831174157 | 93 | 7 | 0.0 | 3.0 | 0.00 | 0.00 | 0.00 | 59 | 1015.8 |
| 20260831173957 | 93 | 7 | 2.0 | 3.0 | 0.00 | 0.00 | 0.00 | 59 | 1015.8 |
| 20260831173855 | 93 | 7 | 0.0 | 3.0 | 0.00 | 0.00 | 0.00 | 59 | 1015.8 |
| 20260831173757 | 93 | 7 | 0.0 | 3.0 | 0.00 | 0.00 | 0.00 | 59 | 1015.8 |
| 20260831173657 | 93 | 7 | 0.0 | 3.0 | 0.00 | 0.00 | 0.00 | 59 | 1015.8 |
| 20260831173558 | 93 | 6 | 3.0 | 3.0 | 0.00 | 0.00 | 0.00 | 59 | 1015.8 |
| 20260831173456 | 93 | 7 | 0.0 | 2.0 | 0.00 | 0.00 | 0.00 | 59 | 1015.7 |
| 20260831173358 | 93 | 7 | 0.0 | 2.0 | 0.00 | 0.00 | 0.00 | 59 | 1015.8 |
| 20260831173257 | 93 | 7 | 0.0 | 2.0 | 0.00 | 0.00 | 0.00 | 59 | 1015.8 |
| 20260831173155 | 93 | 7 | 0.0 | 2.0 | 0.00 | 0.00 | 0.00 | 59 | 1015.8 |
| 20260831173055 | 94 | 7 | 0.0 | 2.0 | 0.00 | 0.00 | 0.00 | 58 | 1015.8 |
| 20260831172959 | 94 | 7 | 0.0 | 2.0 | 0.00 | 0.00 | 0.00 | 58 | 1015.9 |
| 20260831172857 | 94 | 7 | 0.0 | 2.0 | 0.00 | 0.00 | 0.00 | 58 | 1015.9 |
| 20260831172756 | 94 | 7 | 1.0 | 3.0 | 0.00 | 0.00 | 0.00 | 59 | 1015.9 |
| 20260831172655 | 94 | 7 | 0.0 | 3.0 | 0.00 | 0.00 | 0.00 | 59 | 1015.9 |
| 20260831172556 | 94 | 7 | 0.0 | 3.0 | 0.00 | 0.00 | 0.00 | 60 | 1015.9 |
| 20260831172356 | 94 | 7 | 0.0 | 3.0 | 0.00 | 0.00 | 0.00 | 59 | 1016.0 |
| 20260831172255 | 94 | 7 | 0.0 | 3.0 | 0.00 | 0.00 | 0.00 | 60 | 1016.0 |
| 20260831172156 | 93 | 7 | 0.0 | 3.0 | 0.00 | 0.00 | 0.00 | 59 | 1015.9 |
| 20260831172057 | 93 | 7 | 0.0 | 3.0 | 0.00 | 0.00 | 0.00 | 59 | 1016.0 |
| 20260831171958 | 93 | 6 | 2.0 | 2.0 | 0.00 | 0.00 | 0.00 | 59 | 1016.0 |
| 20260831171857 | 93 | 7 | 2.0 | 2.0 | 0.00 | 0.00 | 0.00 | 59 | 1016.0 |
| 20260831171757 | 93 | 7 | 0.0 | 2.0 | 0.00 | 0.00 | 0.00 | 58 | 1016.0 |
| 20260831171657 | 93 | 7 | 0.0 | 2.0 | 0.00 | 0.00 | 0.00 | 59 | 1016.0 |
| 20260831171556 | 93 | 7 | 0.0 | 2.0 | 0.00 | 0.00 | 0.00 | 59 | 1016.0 |
| 20260831171457 | 93 | 7 | 0.0 | 2.0 | 0.00 | 0.00 | 0.00 | 59 | 1016.0 |
| 20260831171358 | 93 | 7 | 0.0 | 2.0 | 0.00 | 0.00 | 0.00 | 59 | 1016.0 |
| 20260831171258 | 94 | 7 | 0.0 | 2.0 | 0.00 | 0.00 | 0.00 | 59 | 1016.0 |
| 20260831171156 | 94 | 7 | 0.0 | 2.0 | 0.00 | 0.00 | 0.00 | 59 | 1016.0 |
| 20260831170957 | 94 | 7 | 0.0 | 2.0 | 0.00 | 0.00 | 0.00 | 59 | 1016.0 |
| 20260831170758 | 94 | 7 | 0.0 | 4.0 | 0.00 | 0.00 | 0.00 | 59 | 1016.0 |
| 20260831170556 | 94 | 6 | 0.0 | 4.0 | 0.00 | 0.00 | 0.00 | 59 | 1016.1 |
| 20260831170455 | 94 | 6 | 1.0 | 4.0 | 0.00 | 0.00 | 0.00 | 59 | 1016.0 |
| 20260831170355 | 94 | 6 | 0.0 | 4.0 | 0.00 | 0.00 | 0.00 | 58 | 1016.0 |
| 20260831170255 | 94 | 6 | 0.0 | 4.0 | 0.00 | 0.00 | 0.00 | 58 | 1016.0 |
| 20260831165957 | 94 | 51 | 2.0 | 4.0 | 0.00 | 0.00 | 0.00 | 58 | 1016.0 |
| 20260831165857 | 95 | 54 | 1.0 | 4.0 | 0.00 | 0.00 | 0.00 | 58 | 1016.0 |
| 20260831165757 | 95 | 80 | 0.0 | 3.0 | 0.00 | 0.00 | 0.00 | 58 | 1016.0 |
| 20260831165657 | 95 | 80 | 0.0 | 3.0 | 0.00 | 0.00 | 0.00 | 58 | 1016.0 |
| 20260831165558 | 95 | 80 | 2.0 | 3.0 | 0.00 | 0.00 | 0.00 | 58 | 1016.0 |
| 20260831165356 | 95 | 85 | 1.0 | 3.0 | 0.00 | 0.00 | 0.00 | 58 | 1016.1 |
| 20260831165257 | 95 | 85 | 0.0 | 3.0 | 0.00 | 0.00 | 0.00 | 58 | 1016.1 |
| 20260831165158 | 95 | 85 | 0.0 | 3.0 | 0.00 | 0.00 | 0.00 | 58 | 1016.1 |
| 20260831165057 | 95 | 85 | 1.0 | 3.0 | 0.00 | 0.00 | 0.00 | 58 | 1016.1 |
| 20260831164957 | 95 | 85 | 0.0 | 3.0 | 0.00 | 0.00 | 0.00 | 59 | 1016.1 |
| 20260831164857 | 95 | 85 | 1.0 | 3.0 | 0.00 | 0.00 | 0.00 | 59 | 1016.1 |
| 20260831164654 | 94 | 84 | 1.0 | 3.0 | 0.00 | 0.00 | 0.00 | 59 | 1016.1 |
| 20260831164555 | 94 | 84 | 0.0 | 3.0 | 0.00 | 0.00 | 0.00 | 60 | 1016.1 |
| 20260831164456 | 94 | 84 | 0.0 | 3.0 | 0.00 | 0.00 | 0.00 | 60 | 1016.1 |
| 20260831164255 | 94 | 84 | 0.0 | 3.0 | 0.00 | 0.00 | 0.00 | 60 | 1016.1 |
| 20260831164156 | 94 | 85 | 3.0 | 3.0 | 0.00 | 0.00 | 0.00 | 60 | 1016.1 |
| 20260831164055 | 93 | 84 | 0.0 | 3.0 | 0.00 | 0.00 | 0.00 | 60 | 1016.2 |
| 20260831163959 | 93 | 85 | 1.0 | 3.0 | 0.00 | 0.00 | 0.00 | 60 | 1016.1 |
| 20260831163756 | 93 | 84 | 0.0 | 3.0 | 0.00 | 0.00 | 0.00 | 60 | 1016.1 |
| 20260831163555 | 93 | 84 | 0.0 | 3.0 | 0.00 | 0.00 | 0.00 | 59 | 1016.1 |
| 20260831163358 | 93 | 83 | 0.0 | 2.0 | 0.00 | 0.00 | 0.00 | 60 | 1016.1 |
| 20260831163257 | 93 | 83 | 0.0 | 2.0 | 0.00 | 0.00 | 0.00 | 60 | 1016.1 |
| 20260831163157 | 93 | 83 | 0.0 | 2.0 | 0.00 | 0.00 | 0.00 | 60 | 1016.1 |
| 20260831163057 | 93 | 83 | 0.0 | 2.0 | 0.00 | 0.00 | 0.00 | 60 | 1016.1 |
| 20260831162957 | 93 | 83 | 0.0 | 2.0 | 0.00 | 0.00 | 0.00 | 60 | 1016.1 |
| 20260831162855 | 93 | 83 | 0.0 | 3.0 | 0.00 | 0.00 | 0.00 | 59 | 1016.0 |